FW4143 Weather Reports


time (UTC)temp
C
wind
direction
speed
KPH
gust
KPH
rain 1hr
cm
rain 24hr
cm
rain mn
cm
humidity
%
barometer
mb
20260904075503 26 38 4.8 14.5 0.00 0.00 0.00 1 1013.2
20260904075403 26 38 4.8 14.5 0.00 0.00 0.00 1 1013.2
20260904075306 26 38 4.8 14.5 0.00 0.00 0.00 1 1013.3
20260904075225 26 37 4.8 11.3 0.00 0.00 0.00 1 1013.2
20260904075103 26 40 4.8 9.7 0.00 0.00 0.00 1 1013.2
20260904075004 26 41 4.8 9.7 0.00 0.00 0.00 1 1013.3
20260904074924 26 43 4.8 9.7 0.00 0.00 0.00 1 1013.2
20260904074803 26 47 4.8 9.7 0.00 0.00 0.00 1 1013.3
20260904074703 26 48 4.8 9.7 0.00 0.00 0.00 1 1013.2
20260904074603 26 48 4.8 9.7 0.00 0.00 0.00 1 1013.2
20260904074504 26 49 4.8 9.7 0.00 0.00 0.00 1 1013.2
20260904074403 26 49 3.2 9.7 0.00 0.00 0.00 1 1013.2
20260904074303 26 47 3.2 9.7 0.00 0.00 0.00 1 1013.3
20260904074224 26 47 3.2 9.7 0.00 0.00 0.00 1 1013.3
20260904074103 26 48 4.8 8.0 0.00 0.00 0.00 1 1013.3
20260904074024 26 47 4.8 8.0 0.00 0.00 0.00 1 1013.3
20260904073903 26 41 4.8 9.7 0.00 0.00 0.00 1 1013.2
20260904073803 27 38 4.8 9.7 0.00 0.00 0.00 1 1013.3
20260904073703 27 39 4.8 9.7 0.00 0.00 0.00 1 1013.2
20260904073603 27 39 4.8 9.7 0.00 0.00 0.00 1 1013.2
20260904073503 27 39 4.8 11.3 0.00 0.00 0.00 1 1013.2
20260904073403 27 39 4.8 11.3 0.00 0.00 0.00 1 1013.2
20260904073303 27 39 6.4 11.3 0.00 0.00 0.00 1 1013.3
20260904073204 27 39 6.4 11.3 0.00 0.00 0.00 1 1013.3
20260904073124 27 39 6.4 11.3 0.00 0.00 0.00 1 1013.3
20260904073003 27 39 6.4 11.3 0.00 0.00 0.00 1 1013.3
20260904072903 27 42 4.8 11.3 0.00 0.00 0.00 1 1013.3
20260904072803 27 44 4.8 11.3 0.00 0.00 0.00 1 1013.4
20260904072703 27 43 4.8 11.3 0.00 0.00 0.00 1 1013.4
20260904072603 27 43 4.8 11.3 0.00 0.00 0.00 1 1013.4
20260904072503 27 43 4.8 11.3 0.00 0.00 0.00 1 1013.4
20260904072403 27 43 4.8 11.3 0.00 0.00 0.00 1 1013.4
20260904072306 27 44 3.2 11.3 0.00 0.00 0.00 1 1013.4
20260904072203 27 42 4.8 11.3 0.00 0.00 0.00 1 1013.4
20260904072103 27 41 3.2 9.7 0.00 0.00 0.00 1 1013.4
20260904072024 27 41 4.8 9.7 0.00 0.00 0.00 1 1013.5
20260904071903 27 40 4.8 12.9 0.00 0.00 0.00 1 1013.5
20260904071803 27 39 4.8 12.9 0.00 0.00 0.00 1 1013.5
20260904071703 27 38 4.8 12.9 0.00 0.00 0.00 1 1013.5
20260904071603 27 39 4.8 12.9 0.00 0.00 0.00 1 1013.5
20260904071503 27 40 4.8 12.9 0.00 0.00 0.00 1 1013.6
20260904071403 27 41 4.8 12.9 0.00 0.00 0.00 1 1013.6
20260904071303 27 42 4.8 12.9 0.00 0.00 0.00 1 1013.5
20260904071203 27 44 4.8 12.9 0.00 0.00 0.00 1 1013.6
20260904071105 27 45 4.8 12.9 0.00 0.00 0.00 1 1013.6
20260904071024 27 46 4.8 12.9 0.00 0.00 0.00 1 1013.6
20260904070903 27 47 4.8 16.1 0.00 0.00 0.00 1 1013.6
20260904070803 27 48 4.8 16.1 0.00 0.00 0.00 1 1013.6
20260904070703 27 49 4.8 16.1 0.00 0.00 0.00 1 1013.6
20260904070603 27 50 4.8 16.1 0.00 0.00 0.00 1 1013.6
20260904070503 27 50 4.8 16.1 0.00 0.00 0.00 1 1013.6
20260904070403 27 48 4.8 16.1 0.00 0.00 0.00 1 1013.6
20260904070303 27 46 4.8 16.1 0.00 0.00 0.00 1 1013.6
20260904070203 27 45 4.8 16.1 0.00 0.00 0.00 1 1013.6
20260904070103 27 42 4.8 16.1 0.00 0.00 0.00 1 1013.6
20260904070024 27 42 4.8 16.1 0.00 0.00 0.00 1 1013.7
20260904065924 27 43 4.8 11.3 0.00 0.00 0.00 1 1013.6
20260904065803 27 41 4.8 11.3 0.00 0.00 0.00 1 1013.6
20260904065703 27 41 4.8 11.3 0.00 0.00 0.00 1 1013.6
20260904065603 27 40 4.8 11.3 0.00 0.00 0.00 1 1013.6
20260904065524 27 40 4.8 11.3 0.00 0.00 0.00 1 1013.7
20260904065403 27 41 4.8 11.3 0.00 0.00 0.00 1 1013.6
20260904065306 27 42 4.8 11.3 0.00 0.00 0.00 1 1013.6
20260904065203 27 44 4.8 11.3 0.00 0.00 0.00 1 1013.7
20260904065124 27 44 4.8 11.3 0.00 0.00 0.00 1 1013.7
20260904065003 27 44 4.8 9.7 0.00 0.00 0.00 1 1013.6
20260904064924 27 44 4.8 9.7 0.00 0.00 0.00 1 1013.7
20260904064803 27 44 4.8 12.9 0.00 0.00 0.00 1 1013.7
20260904064704 27 44 4.8 12.9 0.00 0.00 0.00 1 1013.7
20260904064603 27 42 4.8 12.9 0.00 0.00 0.00 1 1013.7
20260904064524 27 42 4.8 12.9 0.00 0.00 0.00 1 1013.7
20260904064403 27 41 4.8 12.9 0.00 0.00 0.00 1 1013.7
20260904064303 27 39 6.4 12.9 0.00 0.00 0.00 1 1013.7
20260904064203 27 40 6.4 12.9 0.00 0.00 0.00 1 1013.7
20260904064103 27 40 6.4 12.9 0.00 0.00 0.00 1 1013.6
20260904064003 27 40 6.4 12.9 0.00 0.00 0.00 1 1013.7
20260904063904 27 41 6.4 12.9 0.00 0.00 0.00 1 1013.7
20260904063803 27 42 6.4 12.9 0.00 0.00 0.00 1 1013.7
20260904063703 27 41 6.4 12.9 0.00 0.00 0.00 1 1013.6
20260904063624 27 43 6.4 12.9 0.00 0.00 0.00 1 1013.6
20260904063503 27 43 6.4 12.9 0.00 0.00 0.00 1 1013.7
20260904063403 27 39 6.4 12.9 0.00 0.00 0.00 1 1013.7
20260904063303 27 32 4.8 12.9 0.00 0.00 0.00 1 1013.7
20260904063203 27 29 4.8 12.9 0.00 0.00 0.00 1 1013.7
20260904063103 27 28 4.8 12.9 0.00 0.00 0.00 1 1013.7
20260904063024 27 26 4.8 12.9 0.00 0.00 0.00 1 1013.7
20260904062926 27 25 4.8 12.9 0.00 0.00 0.00 1 1013.7
20260904062803 27 23 4.8 12.9 0.00 0.00 0.00 1 1013.7
20260904062703 27 25 4.8 12.9 0.00 0.00 0.00 1 1013.6
20260904062603 27 26 6.4 12.9 0.00 0.00 0.00 1 1013.7
20260904062503 27 23 6.4 12.9 0.00 0.00 0.00 1 1013.8
20260904062403 27 27 6.4 12.9 0.00 0.00 0.00 1 1013.7
20260904062306 27 32 6.4 12.9 0.00 0.00 0.00 1 1013.7
20260904062203 27 33 6.4 12.9 0.00 0.00 0.00 1 1013.7
20260904062125 27 34 6.4 12.9 0.00 0.00 0.00 1 1013.7
20260904062003 27 34 6.4 12.9 0.00 0.00 0.00 1 1013.7
20260904061903 27 35 6.4 12.9 0.00 0.00 0.00 1 1013.8
20260904061824 27 35 6.4 12.9 0.00 0.00 0.00 1 1013.6
20260904061703 27 33 6.4 16.1 0.00 0.00 0.00 1 1013.7
20260904061624 27 33 6.4 16.1 0.00 0.00 0.00 1 1013.7
20260904061503 27 31 6.4 16.1 0.00 0.00 0.00 1 1013.7
20260904061425 27 32 6.4 16.1 0.00 0.00 0.00 1 1013.6
20260904061303 27 31 6.4 16.1 0.00 0.00 0.00 1 1013.6
20260904061203 27 29 6.4 16.1 0.00 0.00 0.00 1 1013.7
20260904061103 27 28 6.4 16.1 0.00 0.00 0.00 1 1013.7
20260904061004 27 28 6.4 16.1 0.00 0.00 0.00 1 1013.7
20260904060903 27 26 6.4 16.1 0.00 0.00 0.00 1 1013.7
20260904060803 27 24 6.4 16.1 0.00 0.00 0.00 1 1013.7
20260904060703 27 24 6.4 14.5 0.00 0.00 0.00 1 1013.6
20260904060603 27 19 6.4 16.1 0.00 0.00 0.00 1 1013.6
20260904060524 27 22 8.0 16.1 0.00 0.00 0.00 1 1013.6
20260904060403 27 25 8.0 16.1 0.00 0.00 0.00 1 1013.6
20260904060303 27 25 8.0 16.1 0.00 0.00 0.00 1 1013.6
20260904060203 27 25 8.0 16.1 0.00 0.00 0.00 1 1013.6
20260904060103 27 26 8.0 16.1 0.00 0.00 0.00 1 1013.6
20260904060003 27 25 8.0 16.1 0.00 0.00 0.00 1 1013.6
20260904055903 27 24 8.0 16.1 0.00 0.00 0.00 1 1013.7
20260904055803 27 24 8.0 17.7 0.00 0.00 0.00 1 1013.6
20260904055703 27 24 8.0 17.7 0.00 0.00 0.00 1 1013.6
20260904055603 27 28 8.0 17.7 0.00 0.00 0.00 1 1013.6
20260904055524 27 28 8.0 17.7 0.00 0.00 0.00 1 1013.6
20260904055403 27 28 6.4 17.7 0.00 0.00 0.00 1 1013.6
20260904055306 27 31 6.4 17.7 0.00 0.00 0.00 1 1013.6
20260904055206 27 32 6.4 17.7 0.00 0.00 0.00 1 1013.7
20260904055124 27 32 6.4 17.7 0.00 0.00 0.00 1 1013.6
20260904055004 27 31 6.4 17.7 0.00 0.00 0.00 1 1013.7
20260904054903 27 32 6.4 17.7 0.00 0.00 0.00 1 1013.7
20260904054824 27 33 6.4 11.3 0.00 0.00 0.00 1 1013.7
20260904054703 27 36 6.4 11.3 0.00 0.00 0.00 1 1013.7
20260904054603 27 37 6.4 11.3 0.00 0.00 0.00 1 1013.6
20260904054503 27 36 6.4 11.3 0.00 0.00 0.00 1 1013.7
20260904054424 27 36 6.4 12.9 0.00 0.00 0.00 1 1013.7
20260904054303 27 36 6.4 12.9 0.00 0.00 0.00 1 1013.7
20260904054203 27 33 6.4 12.9 0.00 0.00 0.00 1 1013.7
20260904054103 27 33 6.4 12.9 0.00 0.00 0.00 1 1013.6
20260904054003 27 30 6.4 12.9 0.00 0.00 0.00 1 1013.7
20260904053903 27 29 6.4 12.9 0.00 0.00 0.00 1 1013.6
20260904053803 27 29 6.4 12.9 0.00 0.00 0.00 1 1013.6
20260904053703 27 28 6.4 12.9 0.00 0.00 0.00 1 1013.6
20260904053603 27 24 6.4 12.9 0.00 0.00 0.00 1 1013.6
20260904053503 27 26 6.4 12.9 0.00 0.00 0.00 1 1013.6
20260904053403 27 26 6.4 17.7 0.00 0.00 0.00 1 1013.6
20260904053303 27 25 6.4 17.7 0.00 0.00 0.00 1 1013.5
20260904053203 27 26 6.4 17.7 0.00 0.00 0.00 1 1013.6
20260904053103 27 25 6.4 17.7 0.00 0.00 0.00 1 1013.6
20260904053003 27 31 6.4 17.7 0.00 0.00 0.00 1 1013.6
20260904052903 27 29 6.4 17.7 0.00 0.00 0.00 1 1013.6
20260904052804 27 24 6.4 17.7 0.00 0.00 0.00 1 1013.5
20260904052703 27 21 6.4 17.7 0.00 0.00 0.00 1 1013.6
20260904052603 27 23 6.4 17.7 0.00 0.00 0.00 1 1013.6
20260904052503 27 21 6.4 17.7 0.00 0.00 0.00 1 1013.6
20260904052403 27 20 6.4 14.5 0.00 0.00 0.00 1 1013.6
20260904052306 27 18 6.4 16.1 0.00 0.00 0.00 1 1013.6
20260904052203 27 18 6.4 16.1 0.00 0.00 0.00 1 1013.6
20260904052103 27 16 6.4 16.1 0.00 0.00 0.00 1 1013.6
20260904052003 27 16 6.4 16.1 0.00 0.00 0.00 1 1013.6
20260904051905 27 22 6.4 16.1 0.00 0.00 0.00 1 1013.6
20260904051803 27 28 6.4 16.1 0.00 0.00 0.00 1 1013.5
20260904051724 27 28 6.4 16.1 0.00 0.00 0.00 1 1013.5
20260904051603 27 28 6.4 16.1 0.00 0.00 0.00 1 1013.5
20260904051504 27 30 6.4 16.1 0.00 0.00 0.00 1 1013.5
20260904051403 27 28 6.4 17.7 0.00 0.00 0.00 1 1013.5
20260904051303 27 31 6.4 17.7 0.00 0.00 0.00 1 1013.5
20260904051203 27 27 6.4 17.7 0.00 0.00 0.00 1 1013.5
20260904051103 27 28 6.4 17.7 0.00 0.00 0.00 1 1013.5
20260904051003 27 24 8.0 17.7 0.00 0.00 0.00 1 1013.5
20260904050903 27 16 8.0 19.3 0.00 0.00 0.00 1 1013.5
20260904050803 27 17 8.0 19.3 0.00 0.00 0.00 1 1013.5
20260904050703 27 16 8.0 19.3 0.00 0.00 0.00 1 1013.5
20260904050603 27 16 8.0 19.3 0.00 0.00 0.00 1 1013.5
20260904050503 27 9 8.0 19.3 0.00 0.00 0.00 1 1013.5
20260904050403 27 360 8.0 19.3 0.00 0.00 0.00 1 1013.5
20260904050324 27 355 8.0 19.3 0.00 0.00 0.00 1 1013.5
20260904050224 27 348 8.0 19.3 0.00 0.00 0.00 1 1013.5
20260904050124 27 345 8.0 19.3 0.00 0.00 0.00 1 1013.5
20260904050004 27 343 6.4 19.3 0.00 0.00 0.00 1 1013.4
20260904045904 27 351 6.4 17.7 0.00 0.00 0.00 1 1013.4
20260904045803 27 347 6.4 17.7 0.00 0.00 0.00 1 1013.5
20260904045703 27 339 6.4 12.9 0.00 0.00 0.00 1 1013.4
20260904045603 27 340 6.4 12.9 0.00 0.00 0.00 1 1013.5
20260904045503 27 348 6.4 12.9 0.00 0.00 0.00 1 1013.5
20260904045403 27 360 6.4 14.5 0.00 0.00 0.00 1 1013.5
20260904045306 27 7 6.4 14.5 0.00 0.00 0.00 1 1013.5
20260904045203 27 11 8.0 14.5 0.00 0.00 0.00 1 1013.5
20260904045103 27 11 8.0 17.7 0.00 0.00 0.00 1 1013.5
20260904045024 27 11 8.0 19.3 0.00 0.00 0.00 1 1013.5
20260904044904 27 10 8.0 19.3 0.00 0.00 0.00 1 1013.5
20260904044803 27 6 8.0 19.3 0.00 0.00 0.00 1 1013.6
20260904044703 27 9 8.0 19.3 0.00 0.00 0.00 1 1013.5
20260904044603 27 9 8.0 19.3 0.00 0.00 0.00 1 1013.5
20260904044503 27 11 8.0 19.3 0.00 0.00 0.00 1 1013.6
20260904044403 27 15 8.0 19.3 0.00 0.00 0.00 1 1013.5
20260904044303 27 17 8.0 19.3 0.00 0.00 0.00 1 1013.5
20260904044203 27 13 8.0 19.3 0.00 0.00 0.00 1 1013.6
20260904044104 27 12 8.0 19.3 0.00 0.00 0.00 1 1013.6
20260904044003 27 11 6.4 17.7 0.00 0.00 0.00 1 1013.6
20260904043904 27 9 6.4 16.1 0.00 0.00 0.00 1 1013.6
20260904043803 27 15 6.4 14.5 0.00 0.00 0.00 1 1013.6
20260904043703 27 21 6.4 12.9 0.00 0.00 0.00 1 1013.5
20260904043603 27 19 6.4 12.9 0.00 0.00 0.00 1 1013.5
20260904043503 27 10 6.4 12.9 0.00 0.00 0.00 1 1013.5
20260904043403 27 2 6.4 12.9 0.00 0.00 0.00 1 1013.5
20260904043303 27 355 4.8 12.9 0.00 0.00 0.00 1 1013.5
20260904043203 27 354 4.8 12.9 0.00 0.00 0.00 1 1013.5
20260904043103 27 347 6.4 16.1 0.00 0.00 0.00 1 1013.4
20260904043003 27 345 6.4 16.1 0.00 0.00 0.00 1 1013.4
20260904042924 27 340 6.4 16.1 0.00 0.00 0.00 1 1013.4
20260904042803 27 336 6.4 16.1 0.00 0.00 0.00 1 1013.4
20260904042724 27 334 6.4 16.1 0.00 0.00 0.00 1 1013.4
20260904042603 27 334 8.0 16.1 0.00 0.00 0.00 1 1013.4
20260904042524 27 340 8.0 16.1 0.00 0.00 0.00 1 1013.4
20260904042424 27 345 8.0 16.1 0.00 0.00 0.00 1 1013.4
20260904042306 27 343 8.0 16.1 0.00 0.00 0.00 1 1013.4
20260904042203 27 352 8.0 16.1 0.00 0.00 0.00 1 1013.4
20260904042124 27 357 8.0 16.1 0.00 0.00 0.00 1 1013.4
20260904042003 27 2 6.4 16.1 0.00 0.00 0.00 1 1013.4
20260904041903 27 10 6.4 16.1 0.00 0.00 0.00 1 1013.4
20260904041824 27 7 6.4 16.1 0.00 0.00 0.00 1 1013.5
20260904041703 27 11 6.4 16.1 0.00 0.00 0.00 1 1013.5
20260904041603 27 13 6.4 16.1 0.00 0.00 0.00 1 1013.5
20260904041503 27 12 6.4 16.1 0.00 0.00 0.00 1 1013.4
20260904041403 27 9 8.0 16.1 0.00 0.00 0.00 1 1013.5
20260904041303 27 6 8.0 16.1 0.00 0.00 0.00 1 1013.4
20260904041203 27 2 8.0 16.1 0.00 0.00 0.00 1 1013.4
20260904041103 27 357 8.0 16.1 0.00 0.00 0.00 1 1013.4
20260904041003 27 354 8.0 17.7 0.00 0.00 0.00 1 1013.4
20260904040903 27 349 8.0 17.7 0.00 0.00 0.00 1 1013.4
20260904040803 27 343 8.0 17.7 0.00 0.00 0.00 1 1013.4
20260904040703 27 338 8.0 17.7 0.00 0.00 0.00 1 1013.4
20260904040603 27 331 8.0 17.7 0.00 0.00 0.00 1 1013.4
20260904040503 27 327 9.7 17.7 0.00 0.00 0.00 1 1013.4
20260904040403 27 325 8.0 17.7 0.00 0.00 0.00 1 1013.5
20260904040324 27 327 8.0 17.7 0.00 0.00 0.00 1 1013.5
20260904040203 27 326 8.0 17.7 0.00 0.00 0.00 1 1013.4
20260904040103 27 328 8.0 17.7 0.00 0.00 0.00 1 1013.5
20260904040004 27 336 8.0 19.3 0.00 0.00 0.00 1 1013.4
20260904035903 27 332 8.0 19.3 0.00 0.00 0.00 1 1013.4
20260904035825 27 334 8.0 19.3 0.00 0.00 0.00 1 1013.4
20260904035703 27 339 8.0 19.3 0.00 0.00 0.00 1 1013.4
20260904035604 27 345 8.0 19.3 0.00 0.00 0.00 1 1013.4
20260904035503 27 349 8.0 19.3 0.00 0.00 0.00 1 1013.4
20260904035403 27 352 8.0 19.3 0.00 0.00 0.00 1 1013.4
20260904035306 27 342 8.0 19.3 0.00 0.00 0.00 1 1013.3
20260904035203 27 342 8.0 19.3 0.00 0.00 0.00 1 1013.4
20260904035103 27 339 8.0 19.3 0.00 0.00 0.00 1 1013.3
20260904035003 27 334 8.0 19.3 0.00 0.00 0.00 1 1013.3
20260904034926 27 335 8.0 19.3 0.00 0.00 0.00 1 1013.3
20260904034805 27 329 8.0 19.3 0.00 0.00 0.00 1 1013.3
20260904034703 27 335 8.0 19.3 0.00 0.00 0.00 1 1013.3
20260904034603 27 334 8.0 19.3 0.00 0.00 0.00 1 1013.2
20260904034503 27 330 8.0 19.3 0.00 0.00 0.00 1 1013.3
20260904034403 27 327 8.0 19.3 0.00 0.00 0.00 1 1013.3
20260904034303 27 329 8.0 19.3 0.00 0.00 0.00 1 1013.2
20260904034203 27 322 8.0 19.3 0.00 0.00 0.00 1 1013.3
20260904034103 27 322 8.0 19.3 0.00 0.00 0.00 1 1013.3
20260904034003 27 323 6.4 17.7 0.00 0.00 0.00 1 1013.3
20260904033903 27 336 6.4 16.1 0.00 0.00 0.00 1 1013.3
20260904033803 27 341 6.4 16.1 0.00 0.00 0.00 1 1013.3
20260904033703 27 337 8.0 16.1 0.00 0.00 0.00 1 1013.3
20260904033603 27 332 8.0 16.1 0.00 0.00 0.00 1 1013.3
20260904033503 27 329 6.4 14.5 0.00 0.00 0.00 1 1013.3
20260904033424 27 331 6.4 14.5 0.00 0.00 0.00 1 1013.3
20260904033303 27 340 6.4 14.5 0.00 0.00 0.00 1 1013.3
20260904033203 27 347 6.4 14.5 0.00 0.00 0.00 1 1013.3
20260904033103 27 345 6.4 14.5 0.00 0.00 0.00 1 1013.3
20260904033024 27 343 6.4 14.5 0.00 0.00 0.00 1 1013.3
20260904032903 27 329 6.4 14.5 0.00 0.00 0.00 1 1013.3
20260904032803 27 323 4.8 14.5 0.00 0.00 0.00 1 1013.3
20260904032703 27 311 4.8 14.5 0.00 0.00 0.00 1 1013.3
20260904032603 27 310 4.8 14.5 0.00 0.00 0.00 1 1013.3
20260904032503 27 306 4.8 14.5 0.00 0.00 0.00 1 1013.3
20260904032403 27 300 4.8 14.5 0.00 0.00 0.00 1 1013.3
20260904032324 27 294 4.8 14.5 0.00 0.00 0.00 1 1013.2
20260904032203 28 281 4.8 14.5 0.00 0.00 0.00 1 1013.3
20260904032103 28 281 4.8 14.5 0.00 0.00 0.00 1 1013.3
20260904032003 28 280 4.8 14.5 0.00 0.00 0.00 1 1013.3
20260904031903 28 278 4.8 14.5 0.00 0.00 0.00 1 1013.2
20260904031803 28 280 4.8 19.3 0.00 0.00 0.00 1 1013.2
20260904031703 28 283 4.8 19.3 0.00 0.00 0.00 1 1013.2
20260904031603 28 290 4.8 19.3 0.00 0.00 0.00 1 1013.2
20260904031503 28 294 4.8 19.3 0.00 0.00 0.00 1 1013.2
20260904031403 28 291 4.8 19.3 0.00 0.00 0.00 1 1013.2
20260904031303 28 294 4.8 19.3 0.00 0.00 0.00 1 1013.3
20260904031203 28 305 4.8 19.3 0.00 0.00 0.00 1 1013.3
20260904031103 28 310 6.4 19.3 0.00 0.00 0.00 1 1013.2
20260904031003 28 317 6.4 19.3 0.00 0.00 0.00 1 1013.3
20260904030903 28 320 6.4 19.3 0.00 0.00 0.00 1 1013.2
20260904030803 28 320 6.4 20.9 0.00 0.00 0.00 1 1013.2
20260904030703 28 320 8.0 20.9 0.00 0.00 0.00 1 1013.2
20260904030603 28 318 8.0 20.9 0.00 0.00 0.00 1 1013.2
20260904030503 28 319 8.0 20.9 0.00 0.00 0.00 1 1013.2
20260904030403 28 323 8.0 20.9 0.00 0.00 0.00 1 1013.2
20260904030304 28 324 6.4 20.9 0.00 0.00 0.00 1 1013.2
20260904030203 28 316 8.0 20.9 0.00 0.00 0.00 1 1013.2
20260904030124 28 313 8.0 20.9 0.00 0.00 0.00 1 1013.2
20260904030004 28 317 8.0 20.9 0.00 0.00 0.00 1 1013.2
20260904025904 28 317 8.0 20.9 0.00 0.00 0.00 1 1013.1
20260904025803 28 321 8.0 22.5 0.00 0.00 0.00 1 1013.2
20260904025703 28 319 8.0 22.5 0.00 0.00 0.00 1 1013.1
20260904025603 28 315 8.0 22.5 0.00 0.00 0.00 1 1013.2
20260904025503 28 314 8.0 22.5 0.00 0.00 0.00 1 1013.2
20260904025403 28 314 8.0 22.5 0.00 0.00 0.00 1 1013.1
20260904025306 28 315 8.0 22.5 0.00 0.00 0.00 1 1013.1
20260904025203 28 316 8.0 22.5 0.00 0.00 0.00 1 1013.1
20260904025103 28 311 6.4 22.5 0.00 0.00 0.00 1 1013.1
20260904025003 28 307 6.4 22.5 0.00 0.00 0.00 1 1013.1
20260904024903 28 311 6.4 22.5 0.00 0.00 0.00 1 1013.1
20260904024803 28 308 6.4 22.5 0.00 0.00 0.00 1 1013.1
20260904024703 28 315 4.8 22.5 0.00 0.00 0.00 1 1013.1
20260904024603 28 314 4.8 11.3 0.00 0.00 0.00 1 1013.0
20260904024524 28 316 4.8 11.3 0.00 0.00 0.00 1 1013.1
20260904024403 28 324 4.8 11.3 0.00 0.00 0.00 1 1013.1
20260904024303 28 336 4.8 11.3 0.00 0.00 0.00 1 1013.0
20260904024203 28 345 4.8 11.3 0.00 0.00 0.00 1 1013.0
20260904024103 28 357 4.8 9.7 0.00 0.00 0.00 1 1013.0
20260904024024 28 360 4.8 9.7 0.00 0.00 0.00 1 1013.0
20260904023925 28 356 3.2 14.5 0.00 0.00 0.00 1 1013.0
20260904023824 28 353 4.8 14.5 0.00 0.00 0.00 1 1013.0
20260904023724 28 351 4.8 14.5 0.00 0.00 0.00 1 1013.0
20260904023604 28 360 4.8 14.5 0.00 0.00 0.00 1 1012.9
20260904023503 28 356 4.8 14.5 0.00 0.00 0.00 1 1012.9
20260904023403 28 350 4.8 14.5 0.00 0.00 0.00 1 1012.9
20260904023303 28 341 4.8 14.5 0.00 0.00 0.00 1 1012.9
20260904023203 28 337 6.4 14.5 0.00 0.00 0.00 1 1012.9
20260904023103 28 332 6.4 14.5 0.00 0.00 0.00 1 1012.9
20260904023003 28 331 6.4 14.5 0.00 0.00 0.00 1 1012.9
20260904022903 28 331 6.4 17.7 0.00 0.00 0.00 1 1012.9
20260904022803 28 325 6.4 17.7 0.00 0.00 0.00 1 1012.9
20260904022703 28 323 6.4 17.7 0.00 0.00 0.00 1 1012.9
20260904022603 28 322 6.4 17.7 0.00 0.00 0.00 1 1012.9
20260904022503 28 321 6.4 17.7 0.00 0.00 0.00 1 1012.8
20260904022403 28 317 6.4 17.7 0.00 0.00 0.00 1 1012.8
20260904022305 28 317 6.4 17.7 0.00 0.00 0.00 1 1012.7
20260904022203 28 314 6.4 17.7 0.00 0.00 0.00 1 1012.8
20260904022103 28 318 6.4 17.7 0.00 0.00 0.00 1 1012.8
20260904022024 28 317 6.4 17.7 0.00 0.00 0.00 1 1012.8
20260904021903 28 305 6.4 17.7 0.00 0.00 0.00 1 1012.8
20260904021803 28 304 6.4 17.7 0.00 0.00 0.00 1 1012.7
20260904021703 28 299 6.4 17.7 0.00 0.00 0.00 1 1012.7
20260904021603 28 295 6.4 17.7 0.00 0.00 0.00 1 1012.7
20260904021524 28 287 6.4 17.7 0.00 0.00 0.00 1 1012.7
20260904021403 28 296 6.4 20.9 0.00 0.00 0.00 1 1012.6
20260904021324 28 299 6.4 20.9 0.00 0.00 0.00 1 1012.7
20260904021224 28 292 6.4 20.9 0.00 0.00 0.00 1 1012.6
20260904021103 28 286 6.4 20.9 0.00 0.00 0.00 1 1012.6
20260904021024 28 288 6.4 20.9 0.00 0.00 0.00 1 1012.6
20260904020903 28 284 6.4 20.9 0.00 0.00 0.00 1 1012.6
20260904020803 28 280 6.4 20.9 0.00 0.00 0.00 1 1012.6
20260904020703 28 279 6.4 20.9 0.00 0.00 0.00 1 1012.6
20260904020603 28 279 6.4 20.9 0.00 0.00 0.00 1 1012.6
20260904020503 28 287 6.4 19.3 0.00 0.00 0.00 1 1012.6
20260904020403 28 280 6.4 14.5 0.00 0.00 0.00 1 1012.6
20260904020303 28 279 6.4 14.5 0.00 0.00 0.00 1 1012.6
20260904020203 28 282 6.4 14.5 0.00 0.00 0.00 1 1012.5
20260904020124 28 284 6.4 14.5 0.00 0.00 0.00 1 1012.5
20260904020003 28 284 6.4 14.5 0.00 0.00 0.00 1 1012.6
20260904015903 28 288 6.4 17.7 0.00 0.00 0.00 1 1012.6
20260904015803 28 291 6.4 17.7 0.00 0.00 0.00 1 1012.6
20260904015703 28 292 6.4 17.7 0.00 0.00 0.00 1 1012.5
20260904015603 28 292 6.4 17.7 0.00 0.00 0.00 1 1012.5
20260904015503 28 295 6.4 17.7 0.00 0.00 0.00 1 1012.4
20260904015403 28 297 6.4 17.7 0.00 0.00 0.00 1 1012.3
20260904015324 28 305 6.4 17.7 0.00 0.00 0.00 1 1012.4
20260904015203 28 304 6.4 17.7 0.00 0.00 0.00 1 1012.3
20260904015103 28 300 6.4 17.7 0.00 0.00 0.00 1 1012.4
20260904015024 28 301 6.4 17.7 0.00 0.00 0.00 1 1012.3
20260904014924 28 306 6.4 17.7 0.00 0.00 0.00 1 1012.4
20260904014824 28 306 6.4 17.7 0.00 0.00 0.00 1 1012.4
20260904014703 28 303 6.4 17.7 0.00 0.00 0.00 2 1012.3
20260904014603 28 299 6.4 17.7 0.00 0.00 0.00 3 1012.4
20260904014503 28 294 6.4 17.7 0.00 0.00 0.00 4 1012.3
20260904014403 28 293 6.4 17.7 0.00 0.00 0.00 5 1012.3
20260904014303 28 285 6.4 17.7 0.00 0.00 0.00 6 1012.3
20260904014203 28 284 6.4 17.7 0.00 0.00 0.00 6 1012.3
20260904014103 29 287 6.4 17.7 0.00 0.00 0.00 7 1012.3
20260904014003 29 285 6.4 17.7 0.00 0.00 0.00 8 1012.2
20260904013903 29 279 6.4 17.7 0.00 0.00 0.00 8 1012.2
20260904013803 29 280 6.4 17.7 0.00 0.00 0.00 9 1012.2
20260904013703 29 283 6.4 17.7 0.00 0.00 0.00 9 1012.1
20260904013603 29 287 6.4 17.7 0.00 0.00 0.00 10 1012.2
20260904013503 29 287 6.4 17.7 0.00 0.00 0.00 11 1012.1
20260904013424 29 285 6.4 17.7 0.00 0.00 0.00 11 1012.1
20260904013303 29 283 6.4 16.1 0.00 0.00 0.00 12 1012.1
20260904013203 29 281 6.4 16.1 0.00 0.00 0.00 13 1012.1
20260904013124 29 279 6.4 16.1 0.00 0.00 0.00 13 1012.0
20260904013003 29 280 6.4 16.1 0.00 0.00 0.00 14 1012.0
20260904012903 29 283 6.4 16.1 0.00 0.00 0.00 15 1012.0
20260904012824 29 283 6.4 16.1 0.00 0.00 0.00 15 1012.0
20260904012703 29 280 6.4 16.1 0.00 0.00 0.00 16 1011.9
20260904012603 29 280 6.4 16.1 0.00 0.00 0.00 17 1011.9
20260904012524 29 281 6.4 16.1 0.00 0.00 0.00 17 1011.9
20260904012403 29 289 8.0 16.1 0.00 0.00 0.00 17 1011.8
20260904012306 29 289 8.0 16.1 0.00 0.00 0.00 18 1011.8
20260904012203 29 291 8.0 16.1 0.00 0.00 0.00 18 1011.8
20260904012103 29 292 8.0 16.1 0.00 0.00 0.00 18 1011.8
20260904012003 29 295 6.4 16.1 0.00 0.00 0.00 19 1011.9
20260904011903 29 292 6.4 16.1 0.00 0.00 0.00 19 1011.9
20260904011803 29 294 8.0 16.1 0.00 0.00 0.00 19 1011.9
20260904011703 29 297 8.0 16.1 0.00 0.00 0.00 19 1011.9
20260904011603 29 297 6.4 16.1 0.00 0.00 0.00 20 1011.9
20260904011503 29 295 6.4 16.1 0.00 0.00 0.00 20 1011.9
20260904011403 29 288 6.4 16.1 0.00 0.00 0.00 20 1011.9
20260904011303 29 291 6.4 16.1 0.00 0.00 0.00 20 1011.9
20260904011203 29 294 6.4 20.9 0.00 0.00 0.00 21 1011.9
20260904011103 29 294 6.4 20.9 0.00 0.00 0.00 21 1011.9
20260904011003 30 294 6.4 20.9 0.00 0.00 0.00 21 1011.9
20260904010903 30 295 6.4 20.9 0.00 0.00 0.00 21 1011.9
20260904010803 30 296 4.8 20.9 0.00 0.00 0.00 21 1011.9
20260904010703 30 294 4.8 20.9 0.00 0.00 0.00 21 1011.9
20260904010603 30 290 4.8 20.9 0.00 0.00 0.00 21 1011.9
20260904010503 30 289 6.4 20.9 0.00 0.00 0.00 21 1011.9
20260904010404 30 287 6.4 20.9 0.00 0.00 0.00 21 1011.9
20260904010324 30 288 4.8 20.9 0.00 0.00 0.00 22 1011.9
20260904010203 30 276 4.8 12.9 0.00 0.00 0.00 22 1011.9
20260904010103 30 274 4.8 12.9 0.00 0.00 0.00 22 1011.9
20260904010003 30 274 4.8 12.9 0.00 0.00 0.00 22 1011.9
20260904005924 30 272 6.4 12.9 0.00 0.00 0.00 22 1011.9
20260904005803 30 270 6.4 12.9 0.00 0.00 0.00 23 1011.9
20260904005703 30 269 6.4 12.9 0.00 0.00 0.00 23 1011.9
20260904005603 30 273 6.4 14.5 0.00 0.00 0.00 23 1011.9
20260904005504 30 272 6.4 14.5 0.00 0.00 0.00 23 1011.9
20260904005403 30 273 6.4 14.5 0.00 0.00 0.00 23 1011.9
20260904005306 30 271 6.4 14.5 0.00 0.00 0.00 23 1011.9
20260904005203 30 271 6.4 14.5 0.00 0.00 0.00 24 1011.9
20260904005103 30 268 6.4 14.5 0.00 0.00 0.00 24 1011.9
20260904005003 30 268 6.4 14.5 0.00 0.00 0.00 24 1011.9
20260904004903 30 267 6.4 14.5 0.00 0.00 0.00 24 1011.9
20260904004824 30 267 6.4 14.5 0.00 0.00 0.00 24 1011.9
20260904004703 30 264 6.4 14.5 0.00 0.00 0.00 24 1012.0
20260904004624 30 260 6.4 14.5 0.00 0.00 0.00 25 1011.9
20260904004503 30 260 6.4 14.5 0.00 0.00 0.00 25 1011.9
20260904004424 30 261 6.4 14.5 0.00 0.00 0.00 25 1011.9
20260904004303 30 261 6.4 14.5 0.00 0.00 0.00 25 1011.9
20260904004203 30 262 6.4 14.5 0.00 0.00 0.00 25 1011.9
20260904004124 30 263 6.4 14.5 0.00 0.00 0.00 25 1011.9
20260904004003 30 264 6.4 16.1 0.00 0.00 0.00 26 1011.9
20260904003903 30 267 6.4 16.1 0.00 0.00 0.00 26 1011.9
20260904003805 30 266 6.4 16.1 0.00 0.00 0.00 26 1011.9
20260904003703 30 267 6.4 16.1 0.00 0.00 0.00 26 1011.9
20260904003603 30 269 6.4 16.1 0.00 0.00 0.00 26 1011.9
20260904003503 30 274 6.4 16.1 0.00 0.00 0.00 26 1012.0
20260904003403 30 274 6.4 16.1 0.00 0.00 0.00 26 1012.0
20260904003304 30 279 6.4 16.1 0.00 0.00 0.00 26 1012.0
20260904003203 30 282 6.4 16.1 0.00 0.00 0.00 26 1012.0
20260904003103 30 284 6.4 16.1 0.00 0.00 0.00 26 1012.0
20260904003003 30 284 6.4 16.1 0.00 0.00 0.00 26 1012.0
20260904002903 30 283 6.4 16.1 0.00 0.00 0.00 26 1012.0
20260904002803 30 285 6.4 16.1 0.00 0.00 0.00 26 1011.9
20260904002703 30 283 6.4 16.1 0.00 0.00 0.00 26 1011.9
20260904002603 30 280 8.0 16.1 0.00 0.00 0.00 27 1011.9
20260904002503 30 276 8.0 16.1 0.00 0.00 0.00 27 1011.9
20260904002403 30 274 8.0 16.1 0.00 0.00 0.00 27 1011.9
20260904002306 30 271 6.4 16.1 0.00 0.00 0.00 27 1011.9
20260904002203 30 270 6.4 16.1 0.00 0.00 0.00 28 1011.9
20260904002103 30 273 6.4 16.1 0.00 0.00 0.00 28 1011.8
20260904002003 30 272 6.4 16.1 0.00 0.00 0.00 28 1011.8
20260904001903 30 273 6.4 16.1 0.00 0.00 0.00 28 1011.8
20260904001803 30 272 6.4 12.9 0.00 0.00 0.00 28 1011.8
20260904001703 31 278 6.4 14.5 0.00 0.00 0.00 28 1011.7
20260904001603 31 286 6.4 19.3 0.00 0.00 0.00 29 1011.8
20260904001503 31 289 8.0 22.5 0.00 0.00 0.00 29 1011.8
20260904001403 31 293 8.0 22.5 0.00 0.00 0.00 29 1011.7
20260904001303 31 294 6.4 22.5 0.00 0.00 0.00 29 1011.7
20260904001224 31 294 8.0 22.5 0.00 0.00 0.00 29 1011.8
20260904001103 31 293 8.0 22.5 0.00 0.00 0.00 29 1011.8
20260904001003 31 295 8.0 22.5 0.00 0.00 0.00 29 1011.8
20260904000924 31 295 8.0 22.5 0.00 0.00 0.00 29 1011.8
20260904000804 31 295 8.0 22.5 0.00 0.00 0.00 29 1011.9
20260904000724 31 294 8.0 22.5 0.00 0.00 0.00 29 1011.8
20260904000624 31 289 8.0 22.5 0.00 0.00 0.00 29 1011.8
20260904000503 31 287 8.0 24.1 0.00 0.00 0.00 29 1011.8
20260904000403 31 288 9.7 24.1 0.00 0.00 0.00 29 1011.8
20260904000303 31 287 9.7 24.1 0.00 0.00 0.00 29 1011.8
20260904000204 31 285 9.7 24.1 0.00 0.00 0.00 30 1011.8
20260904000124 31 284 9.7 24.1 0.00 0.00 0.00 30 1011.7
20260904000003 31 277 9.7 24.1 0.00 0.00 0.00 30 1011.7
20260903235924 31 275 9.7 24.1 0.00 0.00 0.00 30 1011.7
20260903235803 31 277 9.7 24.1 0.00 0.00 0.00 30 1011.7
20260903235724 31 276 9.7 24.1 0.00 0.00 0.00 30 1011.7
20260903235624 31 276 9.7 24.1 0.00 0.00 0.00 30 1011.7
20260903235525 31 276 9.7 22.5 0.00 0.00 0.00 30 1011.7
20260903235403 31 271 9.7 24.1 0.00 0.00 0.00 30 1011.7
20260903235305 31 271 9.7 24.1 0.00 0.00 0.00 30 1011.7
20260903235203 31 275 9.7 24.1 0.00 0.00 0.00 30 1011.7
20260903235103 31 280 9.7 24.1 0.00 0.00 0.00 30 1011.7
20260903235003 31 283 11.3 25.7 0.00 0.00 0.00 31 1011.7
20260903234903 31 283 11.3 25.7 0.00 0.00 0.00 31 1011.7
20260903234803 31 283 11.3 25.7 0.00 0.00 0.00 31 1011.7
20260903234703 31 285 11.3 25.7 0.00 0.00 0.00 31 1011.7
20260903234603 31 286 11.3 25.7 0.00 0.00 0.00 31 1011.7
20260903234503 31 288 11.3 25.7 0.00 0.00 0.00 31 1011.7
20260903234403 31 292 11.3 29.0 0.00 0.00 0.00 31 1011.6
20260903234303 31 292 11.3 29.0 0.00 0.00 0.00 32 1011.7
20260903234204 31 290 11.3 29.0 0.00 0.00 0.00 32 1011.6
20260903234124 31 287 9.7 29.0 0.00 0.00 0.00 32 1011.6
20260903234003 31 282 9.7 29.0 0.00 0.00 0.00 32 1011.6
20260903233903 31 283 9.7 29.0 0.00 0.00 0.00 32 1011.7
20260903233803 31 284 9.7 29.0 0.00 0.00 0.00 32 1011.6
20260903233703 31 285 9.7 29.0 0.00 0.00 0.00 32 1011.6
20260903233603 32 285 9.7 29.0 0.00 0.00 0.00 32 1011.6
20260903233503 32 287 9.7 29.0 0.00 0.00 0.00 31 1011.6
20260903233403 32 283 8.0 24.1 0.00 0.00 0.00 32 1011.7
20260903233305 32 283 8.0 32.2 0.00 0.00 0.00 31 1011.6
20260903233224 32 282 8.0 32.2 0.00 0.00 0.00 31 1011.6
20260903233124 32 284 9.7 32.2 0.00 0.00 0.00 31 1011.6
20260903233003 32 289 9.7 32.2 0.00 0.00 0.00 31 1011.6
20260903232903 32 289 9.7 32.2 0.00 0.00 0.00 32 1011.6
20260903232803 32 289 9.7 32.2 0.00 0.00 0.00 31 1011.5
20260903232703 32 289 11.3 32.2 0.00 0.00 0.00 31 1011.5
20260903232603 32 292 11.3 32.2 0.00 0.00 0.00 31 1011.5
20260903232503 32 291 11.3 32.2 0.00 0.00 0.00 31 1011.5
20260903232403 32 295 11.3 32.2 0.00 0.00 0.00 31 1011.5
20260903232306 32 298 12.9 33.8 0.00 0.00 0.00 31 1011.5
20260903232203 32 301 12.9 33.8 0.00 0.00 0.00 31 1011.5
20260903232103 32 300 12.9 33.8 0.00 0.00 0.00 31 1011.4
20260903232003 32 299 12.9 33.8 0.00 0.00 0.00 31 1011.5
20260903231903 32 297 12.9 33.8 0.00 0.00 0.00 31 1011.5
20260903231803 32 296 11.3 33.8 0.00 0.00 0.00 31 1011.5
20260903231703 32 295 11.3 33.8 0.00 0.00 0.00 31 1011.5
20260903231603 32 292 11.3 33.8 0.00 0.00 0.00 31 1011.5
20260903231503 32 291 11.3 33.8 0.00 0.00 0.00 31 1011.5
20260903231403 32 287 11.3 33.8 0.00 0.00 0.00 31 1011.4
20260903231303 32 280 9.7 20.9 0.00 0.00 0.00 30 1011.4
20260903231203 32 276 11.3 20.9 0.00 0.00 0.00 30 1011.5
20260903231103 32 276 11.3 20.9 0.00 0.00 0.00 30 1011.5
20260903231003 32 275 11.3 20.9 0.00 0.00 0.00 30 1011.5
20260903230903 32 277 11.3 20.9 0.00 0.00 0.00 30 1011.5
20260903230805 32 276 11.3 29.0 0.00 0.00 0.00 30 1011.5
20260903230703 32 276 11.3 29.0 0.00 0.00 0.00 30 1011.5
20260903230603 32 275 11.3 29.0 0.00 0.00 0.00 30 1011.5
20260903230503 32 273 11.3 29.0 0.00 0.00 0.00 30 1011.5
20260903230424 32 275 11.3 29.0 0.00 0.00 0.00 30 1011.5
20260903230303 32 280 12.9 30.6 0.00 0.00 0.00 30 1011.5
20260903230203 32 279 11.3 30.6 0.00 0.00 0.00 30 1011.5
20260903230103 32 280 11.3 30.6 0.00 0.00 0.00 30 1011.5
20260903230003 32 279 12.9 30.6 0.00 0.00 0.00 30 1011.6
20260903225903 32 280 12.9 30.6 0.00 0.00 0.00 30 1011.6
20260903225803 32 281 12.9 30.6 0.00 0.00 0.00 29 1011.6
20260903225703 32 279 12.9 30.6 0.00 0.00 0.00 30 1011.6
20260903225603 32 280 12.9 30.6 0.00 0.00 0.00 29 1011.6
20260903225503 32 284 12.9 30.6 0.00 0.00 0.00 29 1011.6
20260903225403 32 285 12.9 25.7 0.00 0.00 0.00 30 1011.5
20260903225306 32 283 12.9 25.7 0.00 0.00 0.00 29 1011.4
20260903225203 32 284 12.9 25.7 0.00 0.00 0.00 30 1011.4
20260903225103 32 285 12.9 25.7 0.00 0.00 0.00 30 1011.4
20260903225003 32 285 12.9 25.7 0.00 0.00 0.00 30 1011.4
20260903224903 32 288 12.9 27.4 0.00 0.00 0.00 30 1011.4
20260903224803 32 288 12.9 27.4 0.00 0.00 0.00 30 1011.4
20260903224703 32 288 12.9 27.4 0.00 0.00 0.00 30 1011.4
20260903224603 32 289 12.9 27.4 0.00 0.00 0.00 30 1011.4
20260903224524 32 286 12.9 27.4 0.00 0.00 0.00 30 1011.3
20260903224403 32 285 12.9 27.4 0.00 0.00 0.00 31 1011.4
20260903224303 32 284 12.9 27.4 0.00 0.00 0.00 31 1011.3
20260903224203 32 283 11.3 27.4 0.00 0.00 0.00 31 1011.4
20260903224103 32 279 11.3 27.4 0.00 0.00 0.00 31 1011.3
20260903224003 32 277 11.3 27.4 0.00 0.00 0.00 31 1011.4
20260903223903 33 272 11.3 27.4 0.00 0.00 0.00 31 1011.4
20260903223803 33 272 11.3 27.4 0.00 0.00 0.00 31 1011.2
20260903223703 33 271 11.3 27.4 0.00 0.00 0.00 31 1011.3
20260903223603 33 270 11.3 27.4 0.00 0.00 0.00 30 1011.3
20260903223503 33 273 12.9 27.4 0.00 0.00 0.00 30 1011.3
20260903223403 33 275 12.9 27.4 0.00 0.00 0.00 30 1011.3
20260903223303 32 276 12.9 27.4 0.00 0.00 0.00 30 1011.3
20260903223203 32 276 12.9 33.8 0.00 0.00 0.00 29 1011.3
20260903223103 32 279 12.9 33.8 0.00 0.00 0.00 29 1011.3
20260903223003 32 279 12.9 33.8 0.00 0.00 0.00 29 1011.3
20260903222903 32 279 12.9 33.8 0.00 0.00 0.00 29 1011.4
20260903222803 33 282 12.9 33.8 0.00 0.00 0.00 28 1011.3
20260903222704 33 283 12.9 33.8 0.00 0.00 0.00 28 1011.3
20260903222603 33 283 12.9 33.8 0.00 0.00 0.00 28 1011.2
20260903222503 33 280 12.9 33.8 0.00 0.00 0.00 27 1011.3
20260903222403 33 278 12.9 33.8 0.00 0.00 0.00 27 1011.2
20260903222305 33 277 12.9 33.8 0.00 0.00 0.00 27 1011.2
20260903222203 33 276 12.9 25.7 0.00 0.00 0.00 27 1011.2
20260903222124 33 275 12.9 25.7 0.00 0.00 0.00 27 1011.2
20260903222024 33 277 12.9 25.7 0.00 0.00 0.00 28 1011.2
20260903221903 33 280 12.9 25.7 0.00 0.00 0.00 29 1011.1
20260903221803 33 278 11.3 25.7 0.00 0.00 0.00 30 1011.1
20260903221703 33 277 11.3 24.1 0.00 0.00 0.00 30 1011.1
20260903221603 33 274 11.3 24.1 0.00 0.00 0.00 31 1011.1
20260903221503 33 276 11.3 24.1 0.00 0.00 0.00 31 1011.0
20260903221424 33 274 9.7 22.5 0.00 0.00 0.00 31 1011.0
20260903221303 33 274 9.7 20.9 0.00 0.00 0.00 32 1011.0
20260903221224 33 274 9.7 20.9 0.00 0.00 0.00 32 1010.9
20260903221103 33 272 9.7 20.9 0.00 0.00 0.00 32 1011.0
20260903221003 33 272 9.7 20.9 0.00 0.00 0.00 33 1011.0
20260903220903 33 270 9.7 20.9 0.00 0.00 0.00 33 1010.9
20260903220803 33 270 11.3 20.9 0.00 0.00 0.00 33 1010.9
20260903220703 33 270 11.3 20.9 0.00 0.00 0.00 33 1011.0
20260903220603 33 273 11.3 27.4 0.00 0.00 0.00 33 1011.0
20260903220503 33 273 11.3 27.4 0.00 0.00 0.00 33 1011.0
20260903220424 33 273 11.3 27.4 0.00 0.00 0.00 33 1011.0
20260903220324 33 275 11.3 27.4 0.00 0.00 0.00 33 1011.0
20260903220203 33 274 11.3 27.4 0.00 0.00 0.00 34 1011.0
20260903220124 33 274 11.3 27.4 0.00 0.00 0.00 34 1011.0
20260903220024 33 275 11.3 27.4 0.00 0.00 0.00 34 1011.0
20260903215903 33 277 11.3 27.4 0.00 0.00 0.00 35 1011.1
20260903215803 33 279 11.3 27.4 0.00 0.00 0.00 35 1011.0
20260903215703 33 278 11.3 27.4 0.00 0.00 0.00 35 1011.1
20260903215624 33 278 11.3 25.7 0.00 0.00 0.00 35 1011.0
20260903215503 33 273 11.3 24.1 0.00 0.00 0.00 35 1011.1
20260903215403 33 271 11.3 24.1 0.00 0.00 0.00 36 1011.1
20260903215306 33 272 11.3 24.1 0.00 0.00 0.00 36 1011.0
20260903215203 33 275 11.3 24.1 0.00 0.00 0.00 36 1011.0
20260903215103 33 275 11.3 24.1 0.00 0.00 0.00 36 1011.0
20260903215003 33 273 9.7 24.1 0.00 0.00 0.00 36 1011.0
20260903214903 33 274 11.3 24.1 0.00 0.00 0.00 37 1011.0
20260903214803 33 273 11.3 24.1 0.00 0.00 0.00 37 1011.0
20260903214724 33 275 11.3 24.1 0.00 0.00 0.00 37 1011.0
20260903214605 34 274 11.3 24.1 0.00 0.00 0.00 37 1011.0
20260903214503 34 274 11.3 22.5 0.00 0.00 0.00 37 1011.0
20260903214403 34 276 11.3 22.5 0.00 0.00 0.00 37 1011.0
20260903214303 34 270 11.3 22.5 0.00 0.00 0.00 37 1011.0
20260903214203 34 264 11.3 24.1 0.00 0.00 0.00 37 1011.0
20260903214103 34 265 12.9 24.1 0.00 0.00 0.00 37 1011.0
20260903214003 34 264 12.9 24.1 0.00 0.00 0.00 37 1011.0
20260903213903 34 260 11.3 24.1 0.00 0.00 0.00 38 1011.0
20260903213824 34 260 11.3 24.1 0.00 0.00 0.00 38 1011.0
20260903213703 34 261 11.3 24.1 0.00 0.00 0.00 38 1011.0
20260903213603 34 261 11.3 24.1 0.00 0.00 0.00 38 1011.0
20260903213503 34 263 11.3 24.1 0.00 0.00 0.00 38 1011.1
20260903213403 34 265 11.3 24.1 0.00 0.00 0.00 38 1011.0
20260903213303 34 268 11.3 24.1 0.00 0.00 0.00 38 1011.0
20260903213203 34 269 11.3 24.1 0.00 0.00 0.00 38 1011.1
20260903213103 34 269 9.7 24.1 0.00 0.00 0.00 38 1011.1
20260903213003 34 270 11.3 22.5 0.00 0.00 0.00 38 1011.1
20260903212903 34 267 11.3 22.5 0.00 0.00 0.00 38 1011.1
20260903212803 34 264 9.7 22.5 0.00 0.00 0.00 38 1011.1
20260903212703 34 260 9.7 22.5 0.00 0.00 0.00 38 1011.1
20260903212603 34 259 9.7 22.5 0.00 0.00 0.00 38 1011.1
20260903212524 34 260 9.7 22.5 0.00 0.00 0.00 38 1011.2
20260903212403 34 256 9.7 22.5 0.00 0.00 0.00 38 1011.2
20260903212306 34 256 9.7 22.5 0.00 0.00 0.00 38 1011.1
20260903212203 34 259 9.7 22.5 0.00 0.00 0.00 38 1011.2
20260903212103 34 261 9.7 22.5 0.00 0.00 0.00 38 1011.3
20260903212003 35 261 8.0 22.5 0.00 0.00 0.00 38 1011.3
20260903211903 34 265 9.7 22.5 0.00 0.00 0.00 38 1011.3
20260903211803 34 267 9.7 22.5 0.00 0.00 0.00 38 1011.2
20260903211724 34 267 9.7 22.5 0.00 0.00 0.00 38 1011.2
20260903211603 34 268 11.3 22.5 0.00 0.00 0.00 38 1011.2
20260903211503 34 267 9.7 22.5 0.00 0.00 0.00 38 1011.2
20260903211404 34 267 11.3 22.5 0.00 0.00 0.00 38 1011.2
20260903211303 34 266 11.3 22.5 0.00 0.00 0.00 38 1011.2
20260903211203 34 264 11.3 22.5 0.00 0.00 0.00 38 1011.3
20260903211103 34 262 9.7 22.5 0.00 0.00 0.00 38 1011.3
20260903211003 34 261 11.3 22.5 0.00 0.00 0.00 38 1011.2
20260903210903 35 260 9.7 22.5 0.00 0.00 0.00 38 1011.3
20260903210803 35 258 9.7 24.1 0.00 0.00 0.00 38 1011.3
20260903210703 35 256 11.3 24.1 0.00 0.00 0.00 38 1011.3
20260903210603 35 256 9.7 24.1 0.00 0.00 0.00 38 1011.3
20260903210503 35 257 9.7 24.1 0.00 0.00 0.00 38 1011.3
20260903210403 35 257 9.7 24.1 0.00 0.00 0.00 38 1011.3
20260903210303 35 257 9.7 24.1 0.00 0.00 0.00 38 1011.3
20260903210203 35 256 9.7 24.1 0.00 0.00 0.00 38 1011.3
20260903210103 35 259 9.7 24.1 0.00 0.00 0.00 38 1011.4
20260903210003 35 259 9.7 24.1 0.00 0.00 0.00 38 1011.3
20260903205924 35 261 9.7 24.1 0.00 0.00 0.00 38 1011.3
20260903205803 35 262 8.0 20.9 0.00 0.00 0.00 37 1011.3
20260903205703 35 263 8.0 20.9 0.00 0.00 0.00 37 1011.4
20260903205603 35 265 8.0 20.9 0.00 0.00 0.00 38 1011.3
20260903205503 35 265 8.0 20.9 0.00 0.00 0.00 37 1011.3
20260903205403 35 268 8.0 20.9 0.00 0.00 0.00 37 1011.3
20260903205324 35 270 9.7 20.9 0.00 0.00 0.00 38 1011.4
20260903205224 35 271 8.0 20.9 0.00 0.00 0.00 37 1011.4
20260903205103 35 269 8.0 19.3 0.00 0.00 0.00 38 1011.3
20260903205003 35 269 8.0 19.3 0.00 0.00 0.00 38 1011.3
20260903204903 35 268 8.0 19.3 0.00 0.00 0.00 38 1011.4
20260903204803 35 268 8.0 19.3 0.00 0.00 0.00 37 1011.4
20260903204703 35 267 8.0 19.3 0.00 0.00 0.00 37 1011.4
20260903204603 35 267 8.0 19.3 0.00 0.00 0.00 37 1011.5
20260903204503 35 265 8.0 19.3 0.00 0.00 0.00 37 1011.5
20260903204403 35 260 8.0 17.7 0.00 0.00 0.00 37 1011.5
20260903204303 35 255 8.0 17.7 0.00 0.00 0.00 37 1011.6
20260903204203 35 251 8.0 17.7 0.00 0.00 0.00 37 1011.5
20260903204124 35 250 8.0 17.7 0.00 0.00 0.00 37 1011.5
20260903204003 35 251 8.0 19.3 0.00 0.00 0.00 37 1011.6
20260903203903 35 251 8.0 19.3 0.00 0.00 0.00 37 1011.6
20260903203803 35 251 8.0 19.3 0.00 0.00 0.00 37 1011.6
20260903203703 35 252 8.0 19.3 0.00 0.00 0.00 37 1011.6
20260903203603 35 252 8.0 19.3 0.00 0.00 0.00 37 1011.7
20260903203503 35 251 8.0 19.3 0.00 0.00 0.00 37 1011.7
20260903203403 35 251 8.0 19.3 0.00 0.00 0.00 37 1011.7
20260903203324 35 251 8.0 19.3 0.00 0.00 0.00 37 1011.7
20260903203224 35 251 8.0 19.3 0.00 0.00 0.00 37 1011.7
20260903203103 35 257 8.0 19.3 0.00 0.00 0.00 37 1011.7
20260903203024 35 259 8.0 17.7 0.00 0.00 0.00 37 1011.7
20260903202903 35 257 8.0 17.7 0.00 0.00 0.00 37 1011.7
20260903202803 35 256 9.7 20.9 0.00 0.00 0.00 37 1011.8
20260903202703 35 255 9.7 20.9 0.00 0.00 0.00 37 1011.8
20260903202603 35 255 8.0 20.9 0.00 0.00 0.00 36 1011.8
20260903202524 35 257 8.0 20.9 0.00 0.00 0.00 37 1011.8
20260903202403 35 259 8.0 20.9 0.00 0.00 0.00 36 1011.8
20260903202306 35 261 8.0 20.9 0.00 0.00 0.00 36 1011.9
20260903202203 35 258 9.7 20.9 0.00 0.00 0.00 36 1011.8
20260903202124 35 258 9.7 20.9 0.00 0.00 0.00 36 1011.9
20260903202003 35 255 8.0 20.9 0.00 0.00 0.00 36 1011.8
20260903201903 35 256 8.0 20.9 0.00 0.00 0.00 36 1011.8
20260903201803 35 256 8.0 16.1 0.00 0.00 0.00 36 1011.9
20260903201703 35 257 8.0 16.1 0.00 0.00 0.00 36 1011.9
20260903201603 35 258 8.0 16.1 0.00 0.00 0.00 37 1011.9
20260903201503 35 260 8.0 16.1 0.00 0.00 0.00 37 1011.9
20260903201403 35 262 8.0 16.1 0.00 0.00 0.00 37 1011.9
20260903201303 35 263 8.0 16.1 0.00 0.00 0.00 37 1011.9
20260903201203 35 268 8.0 16.1 0.00 0.00 0.00 37 1012.0
20260903201103 35 271 6.4 16.1 0.00 0.00 0.00 37 1012.0
20260903201003 35 274 6.4 16.1 0.00 0.00 0.00 37 1012.0
20260903200903 35 276 6.4 16.1 0.00 0.00 0.00 37 1012.0
20260903200803 35 279 6.4 16.1 0.00 0.00 0.00 37 1012.0
20260903200724 35 280 6.4 16.1 0.00 0.00 0.00 37 1012.0
20260903200603 35 283 6.4 16.1 0.00 0.00 0.00 37 1012.0
20260903200503 35 281 6.4 16.1 0.00 0.00 0.00 37 1011.9
20260903200403 35 277 6.4 16.1 0.00 0.00 0.00 37 1011.9
20260903200303 35 276 6.4 16.1 0.00 0.00 0.00 37 1011.9
20260903200203 35 274 6.4 16.1 0.00 0.00 0.00 37 1011.9
20260903200103 35 275 8.0 16.1 0.00 0.00 0.00 37 1011.9
20260903200003 35 275 8.0 16.1 0.00 0.00 0.00 37 1011.9
20260903195903 35 274 8.0 16.1 0.00 0.00 0.00 37 1011.9
20260903195803 35 271 8.0 16.1 0.00 0.00 0.00 37 1012.0
20260903195703 35 268 6.4 16.1 0.00 0.00 0.00 37 1012.0
20260903195624 35 266 6.4 16.1 0.00 0.00 0.00 36 1011.9
20260903195503 35 264 6.4 14.5 0.00 0.00 0.00 36 1011.9
20260903195403 35 268 6.4 14.5 0.00 0.00 0.00 36 1011.9
20260903195306 35 270 4.8 14.5 0.00 0.00 0.00 36 1011.9
20260903195203 35 269 4.8 12.9 0.00 0.00 0.00 36 1011.9
20260903195103 35 264 4.8 12.9 0.00 0.00 0.00 36 1011.9
20260903195003 35 261 4.8 12.9 0.00 0.00 0.00 36 1011.9
20260903194903 35 260 4.8 12.9 0.00 0.00 0.00 36 1011.9
20260903194803 35 261 4.8 12.9 0.00 0.00 0.00 36 1012.0
20260903194703 35 262 4.8 12.9 0.00 0.00 0.00 36 1012.0
20260903194624 35 262 4.8 12.9 0.00 0.00 0.00 36 1011.9
20260903194503 35 258 4.8 12.9 0.00 0.00 0.00 36 1012.0
20260903194424 35 256 4.8 12.9 0.00 0.00 0.00 36 1012.0
20260903194324 35 251 4.8 12.9 0.00 0.00 0.00 36 1012.0
20260903194224 35 250 4.8 12.9 0.00 0.00 0.00 36 1011.9
20260903194103 35 248 4.8 9.7 0.00 0.00 0.00 36 1012.0
20260903194024 35 248 4.8 9.7 0.00 0.00 0.00 36 1012.0
20260903193924 35 247 4.8 9.7 0.00 0.00 0.00 36 1012.0
20260903193803 35 247 4.8 9.7 0.00 0.00 0.00 36 1012.0
20260903193724 35 247 4.8 9.7 0.00 0.00 0.00 36 1012.0
20260903193603 35 252 4.8 9.7 0.00 0.00 0.00 36 1012.0
20260903193503 35 255 6.4 14.5 0.00 0.00 0.00 36 1012.1
20260903193403 35 257 6.4 14.5 0.00 0.00 0.00 36 1012.0
20260903193303 35 259 6.4 17.7 0.00 0.00 0.00 36 1012.0
20260903193203 35 262 6.4 17.7 0.00 0.00 0.00 36 1012.1
20260903193103 35 265 6.4 17.7 0.00 0.00 0.00 36 1012.1
20260903193024 35 268 6.4 17.7 0.00 0.00 0.00 36 1012.1
20260903192903 35 272 6.4 17.7 0.00 0.00 0.00 36 1012.1
20260903192803 35 283 8.0 17.7 0.00 0.00 0.00 36 1012.1
20260903192724 35 295 8.0 17.7 0.00 0.00 0.00 36 1012.1
20260903192624 35 316 6.4 17.7 0.00 0.00 0.00 36 1012.1
20260903192503 35 344 6.4 17.7 0.00 0.00 0.00 36 1012.1
20260903192403 36 347 6.4 17.7 0.00 0.00 0.00 36 1012.2
20260903192306 36 3 4.8 17.7 0.00 0.00 0.00 35 1012.1
20260903192203 36 5 4.8 12.9 0.00 0.00 0.00 35 1012.2
20260903192103 36 2 4.8 19.3 0.00 0.00 0.00 35 1012.2
20260903192003 36 351 6.4 19.3 0.00 0.00 0.00 35 1012.2
20260903191903 36 337 6.4 19.3 0.00 0.00 0.00 34 1012.2
20260903191803 36 317 4.8 19.3 0.00 0.00 0.00 34 1012.3
20260903191703 36 298 4.8 19.3 0.00 0.00 0.00 34 1012.3
20260903191624 36 284 4.8 19.3 0.00 0.00 0.00 34 1012.3
20260903191503 36 270 4.8 19.3 0.00 0.00 0.00 34 1012.3
20260903191403 36 262 4.8 19.3 0.00 0.00 0.00 34 1012.3
20260903191303 36 264 4.8 19.3 0.00 0.00 0.00 34 1012.3
20260903191203 36 262 4.8 19.3 0.00 0.00 0.00 34 1012.4
20260903191124 36 247 4.8 9.7 0.00 0.00 0.00 34 1012.3
20260903191003 35 285 4.8 9.7 0.00 0.00 0.00 35 1012.4
20260903190903 35 332 4.8 9.7 0.00 0.00 0.00 35 1012.4
20260903190803 35 1 4.8 9.7 0.00 0.00 0.00 35 1012.4
20260903190703 35 356 4.8 12.9 0.00 0.00 0.00 34 1012.4
20260903190603 36 353 4.8 12.9 0.00 0.00 0.00 34 1012.5
20260903190524 36 356 4.8 12.9 0.00 0.00 0.00 34 1012.5
20260903190403 36 359 4.8 12.9 0.00 0.00 0.00 34 1012.5
20260903190324 36 349 4.8 12.9 0.00 0.00 0.00 34 1012.5
20260903190203 36 336 4.8 12.9 0.00 0.00 0.00 34 1012.6
20260903190003 35 311 4.8 12.9 0.00 0.00 0.00 34 1012.6
20260903185924 35 304 4.8 12.9 0.00 0.00 0.00 34 1012.7
20260903185803 35 293 4.8 12.9 0.00 0.00 0.00 33 1012.7
20260903185703 35 284 4.8 12.9 0.00 0.00 0.00 34 1012.7
20260903185603 35 278 4.8 12.9 0.00 0.00 0.00 34 1012.6
20260903185503 35 278 4.8 12.9 0.00 0.00 0.00 34 1012.7
20260903185403 35 282 4.8 12.9 0.00 0.00 0.00 34 1012.8
20260903185306 35 284 4.8 16.1 0.00 0.00 0.00 34 1012.7
20260903185203 35 287 6.4 16.1 0.00 0.00 0.00 34 1012.7
20260903185103 35 287 6.4 16.1 0.00 0.00 0.00 34 1012.8
20260903185003 35 288 4.8 16.1 0.00 0.00 0.00 34 1012.8
20260903184903 35 289 4.8 16.1 0.00 0.00 0.00 34 1012.8
20260903184803 35 287 6.4 16.1 0.00 0.00 0.00 34 1012.8
20260903184703 35 288 4.8 16.1 0.00 0.00 0.00 34 1012.9
20260903184603 35 291 4.8 16.1 0.00 0.00 0.00 34 1012.9
20260903184503 35 288 4.8 16.1 0.00 0.00 0.00 33 1012.9
20260903184403 35 280 4.8 16.1 0.00 0.00 0.00 33 1012.9
20260903184303 35 277 4.8 16.1 0.00 0.00 0.00 33 1012.9
20260903184203 35 279 4.8 17.7 0.00 0.00 0.00 33 1012.9
20260903184103 35 278 6.4 19.3 0.00 0.00 0.00 33 1013.0
20260903184024 35 281 6.4 19.3 0.00 0.00 0.00 33 1012.9
20260903183903 35 287 6.4 19.3 0.00 0.00 0.00 33 1013.0
20260903183824 35 288 6.4 19.3 0.00 0.00 0.00 33 1013.0
20260903183703 35 293 6.4 19.3 0.00 0.00 0.00 33 1013.1
20260903183603 35 296 6.4 19.3 0.00 0.00 0.00 33 1013.1
20260903183503 35 302 6.4 19.3 0.00 0.00 0.00 33 1013.1
20260903183403 35 310 6.4 19.3 0.00 0.00 0.00 33 1013.1
20260903183303 35 316 4.8 19.3 0.00 0.00 0.00 33 1013.1
20260903183203 35 315 4.8 19.3 0.00 0.00 0.00 33 1013.1
20260903183103 35 327 4.8 11.3 0.00 0.00 0.00 33 1013.1
20260903183003 35 325 4.8 11.3 0.00 0.00 0.00 32 1013.2
20260903182903 35 321 4.8 11.3 0.00 0.00 0.00 33 1013.1
20260903182824 35 325 4.8 11.3 0.00 0.00 0.00 32 1013.2
20260903182704 35 343 4.8 11.3 0.00 0.00 0.00 32 1013.2
20260903182603 35 352 4.8 11.3 0.00 0.00 0.00 32 1013.3
20260903182503 35 3 6.4 11.3 0.00 0.00 0.00 33 1013.3
20260903182403 34 10 6.4 11.3 0.00 0.00 0.00 32 1013.3
20260903182306 34 9 4.8 11.3 0.00 0.00 0.00 32 1013.3
20260903182203 34 18 4.8 11.3 0.00 0.00 0.00 32 1013.3
20260903182103 34 20 4.8 11.3 0.00 0.00 0.00 32 1013.3
20260903182003 34 16 4.8 11.3 0.00 0.00 0.00 32 1013.4
20260903181903 34 21 4.8 11.3 0.00 0.00 0.00 32 1013.3
20260903181803 34 2 4.8 11.3 0.00 0.00 0.00 32 1013.3
20260903181703 34 318 3.2 11.3 0.00 0.00 0.00 32 1013.4
20260903181603 34 311 3.2 9.7 0.00 0.00 0.00 32 1013.4
20260903181524 34 316 3.2 9.7 0.00 0.00 0.00 32 1013.4
20260903181403 34 296 3.2 14.5 0.00 0.00 0.00 32 1013.4
20260903181303 34 302 3.2 14.5 0.00 0.00 0.00 32 1013.4
20260903181203 34 302 4.8 14.5 0.00 0.00 0.00 32 1013.5
20260903181103 34 312 4.8 14.5 0.00 0.00 0.00 32 1013.5
20260903181003 34 320 4.8 14.5 0.00 0.00 0.00 32 1013.5
20260903180903 34 324 4.8 14.5 0.00 0.00 0.00 32 1013.5
20260903180803 34 326 4.8 14.5 0.00 0.00 0.00 31 1013.5
20260903180724 34 326 4.8 14.5 0.00 0.00 0.00 31 1013.5
20260903180603 34 318 4.8 14.5 0.00 0.00 0.00 31 1013.5
20260903180504 34 315 4.8 14.5 0.00 0.00 0.00 31 1013.5
20260903180403 34 314 6.4 11.3 0.00 0.00 0.00 31 1013.6
20260903180303 34 326 6.4 11.3 0.00 0.00 0.00 31 1013.6
20260903180203 34 340 6.4 11.3 0.00 0.00 0.00 31 1013.6
20260903180003 34 352 6.4 11.3 0.00 0.00 0.00 31 1013.6
20260903175903 34 358 6.4 11.3 0.00 0.00 0.00 31 1013.6
20260903175803 34 8 6.4 11.3 0.00 0.00 0.00 31 1013.7
20260903175703 34 15 6.4 11.3 0.00 0.00 0.00 31 1013.7
20260903175603 34 22 6.4 11.3 0.00 0.00 0.00 31 1013.7
20260903175524 34 23 6.4 11.3 0.00 0.00 0.00 31 1013.7
20260903175403 34 32 6.4 11.3 0.00 0.00 0.00 31 1013.7
20260903175306 34 33 4.8 11.3 0.00 0.00 0.00 30 1013.8
20260903175203 34 33 4.8 11.3 0.00 0.00 0.00 30 1013.8
20260903175103 34 27 4.8 11.3 0.00 0.00 0.00 30 1013.8
20260903175003 34 27 4.8 11.3 0.00 0.00 0.00 30 1013.9
20260903174903 34 28 4.8 11.3 0.00 0.00 0.00 30 1013.9
20260903174803 34 29 4.8 11.3 0.00 0.00 0.00 29 1013.9
20260903174703 35 31 4.8 9.7 0.00 0.00 0.00 29 1013.9
20260903174603 34 33 4.8 11.3 0.00 0.00 0.00 29 1014.0
20260903174524 34 37 6.4 14.5 0.00 0.00 0.00 29 1014.0
20260903174424 34 35 6.4 14.5 0.00 0.00 0.00 29 1014.0
20260903174324 34 28 6.4 14.5 0.00 0.00 0.00 29 1014.0
20260903174203 34 21 6.4 14.5 0.00 0.00 0.00 29 1014.0
20260903174103 34 21 6.4 14.5 0.00 0.00 0.00 29 1014.0
20260903174003 34 8 6.4 14.5 0.00 0.00 0.00 28 1014.0
20260903173903 34 4 6.4 14.5 0.00 0.00 0.00 29 1014.0
20260903173803 34 358 6.4 14.5 0.00 0.00 0.00 28 1014.0
20260903173724 34 350 8.0 14.5 0.00 0.00 0.00 28 1014.0
20260903173624 34 340 8.0 16.1 0.00 0.00 0.00 28 1014.0
20260903173503 34 327 6.4 16.1 0.00 0.00 0.00 27 1014.0
20260903173403 34 328 6.4 16.1 0.00 0.00 0.00 27 1014.1
20260903173303 34 337 6.4 16.1 0.00 0.00 0.00 27 1014.0
20260903173203 33 345 6.4 16.1 0.00 0.00 0.00 27 1014.0
20260903173124 33 350 6.4 16.1 0.00 0.00 0.00 27 1014.0
20260903173003 33 6 6.4 16.1 0.00 0.00 0.00 27 1014.1
20260903172903 33 14 6.4 16.1 0.00 0.00 0.00 27 1014.1
20260903172824 33 20 8.0 16.1 0.00 0.00 0.00 27 1014.0
20260903172703 33 29 8.0 17.7 0.00 0.00 0.00 27 1014.1
20260903172603 33 38 6.4 17.7 0.00 0.00 0.00 26 1014.1
20260903172503 33 41 8.0 17.7 0.00 0.00 0.00 26 1014.0
20260903172424 33 42 8.0 17.7 0.00 0.00 0.00 26 1014.0
20260903172306 33 45 8.0 17.7 0.00 0.00 0.00 26 1014.0
20260903172203 33 43 8.0 17.7 0.00 0.00 0.00 26 1014.0
20260903172124 33 44 8.0 17.7 0.00 0.00 0.00 26 1014.0
20260903172003 33 42 8.0 17.7 0.00 0.00 0.00 25 1014.0
20260903171924 33 41 8.0 17.7 0.00 0.00 0.00 25 1014.0
20260903171803 33 38 8.0 17.7 0.00 0.00 0.00 25 1014.0
20260903171703 33 37 6.4 17.7 0.00 0.00 0.00 25 1014.0
20260903171603 33 36 6.4 17.7 0.00 0.00 0.00 25 1014.0
20260903171524 33 36 6.4 17.7 0.00 0.00 0.00 24 1014.0
20260903171403 33 36 6.4 17.7 0.00 0.00 0.00 24 1014.0
20260903171303 33 41 6.4 17.7 0.00 0.00 0.00 24 1014.0
20260903171203 33 46 6.4 17.7 0.00 0.00 0.00 24 1014.0
20260903171103 33 48 6.4 16.1 0.00 0.00 0.00 23 1014.0
20260903171024 33 48 8.0 19.3 0.00 0.00 0.00 23 1014.0
20260903170903 32 51 8.0 20.9 0.00 0.00 0.00 23 1014.0
20260903170803 32 47 8.0 20.9 0.00 0.00 0.00 23 1014.0
20260903170703 32 50 8.0 20.9 0.00 0.00 0.00 23 1014.0
20260903170603 32 49 9.7 20.9 0.00 0.00 0.00 23 1014.0
20260903170503 32 48 9.7 20.9 0.00 0.00 0.00 23 1014.0
20260903170424 32 47 9.7 20.9 0.00 0.00 0.00 23 1014.0
20260903170303 32 44 9.7 20.9 0.00 0.00 0.00 23 1014.0
20260903170203 32 42 9.7 20.9 0.00 0.00 0.00 23 1014.0
20260903170103 33 39 9.7 20.9 0.00 0.00 0.00 23 1014.0
20260903170003 33 39 9.7 19.3 0.00 0.00 0.00 22 1014.0
20260903165903 32 37 9.7 19.3 0.00 0.00 0.00 22 1014.0
20260903165803 32 41 9.7 19.3 0.00 0.00 0.00 21 1014.0
20260903165703 32 38 9.7 19.3 0.00 0.00 0.00 21 1014.0
20260903165603 32 38 11.3 19.3 0.00 0.00 0.00 21 1014.0
20260903165503 32 38 11.3 22.5 0.00 0.00 0.00 21 1014.0
20260903165403 32 36 11.3 22.5 0.00 0.00 0.00 20 1014.0
20260903165305 32 35 12.9 22.5 0.00 0.00 0.00 21 1014.0
20260903165203 32 34 12.9 22.5 0.00 0.00 0.00 21 1014.0
20260903165103 32 33 12.9 22.5 0.00 0.00 0.00 21 1013.9
20260903165003 32 32 12.9 22.5 0.00 0.00 0.00 21 1014.0
20260903164924 32 30 12.9 22.5 0.00 0.00 0.00 21 1014.0
20260903164803 32 30 11.3 22.5 0.00 0.00 0.00 20 1013.9
20260903164703 32 30 11.3 22.5 0.00 0.00 0.00 21 1013.9
20260903164624 32 27 11.3 22.5 0.00 0.00 0.00 21 1014.0
20260903164503 32 28 11.3 22.5 0.00 0.00 0.00 20 1014.0
20260903164403 32 31 11.3 22.5 0.00 0.00 0.00 20 1013.9
20260903164303 32 33 9.7 20.9 0.00 0.00 0.00 19 1013.9
20260903164203 32 33 9.7 19.3 0.00 0.00 0.00 19 1013.9
20260903164103 32 35 9.7 19.3 0.00 0.00 0.00 18 1013.9
20260903164003 32 35 9.7 19.3 0.00 0.00 0.00 18 1014.0
20260903163903 32 37 9.7 19.3 0.00 0.00 0.00 17 1014.0
20260903163803 32 34 9.7 19.3 0.00 0.00 0.00 17 1014.0
20260903163703 32 36 9.7 19.3 0.00 0.00 0.00 16 1014.0
20260903163603 32 40 9.7 19.3 0.00 0.00 0.00 16 1014.0
20260903163503 32 40 9.7 24.1 0.00 0.00 0.00 15 1014.1
20260903163403 32 40 9.7 24.1 0.00 0.00 0.00 15 1014.1
20260903163303 32 40 9.7 24.1 0.00 0.00 0.00 14 1014.1
20260903163203 32 41 9.7 24.1 0.00 0.00 0.00 15 1014.1
20260903163124 32 39 9.7 24.1 0.00 0.00 0.00 14 1014.1
20260903163003 32 39 9.7 24.1 0.00 0.00 0.00 14 1014.1
20260903162905 32 43 11.3 24.1 0.00 0.00 0.00 14 1014.1
20260903162803 32 43 11.3 24.1 0.00 0.00 0.00 14 1014.1
20260903162703 32 43 12.9 24.1 0.00 0.00 0.00 14 1014.1
20260903162603 32 41 12.9 24.1 0.00 0.00 0.00 13 1014.1
20260903162503 32 41 12.9 22.5 0.00 0.00 0.00 12 1014.1
20260903162424 32 40 12.9 22.5 0.00 0.00 0.00 12 1014.1
20260903162306 32 37 12.9 22.5 0.00 0.00 0.00 12 1014.1
20260903162203 32 37 12.9 22.5 0.00 0.00 0.00 12 1014.0
20260903162103 32 37 12.9 22.5 0.00 0.00 0.00 13 1014.0
20260903162003 32 37 12.9 22.5 0.00 0.00 0.00 13 1014.0
20260903161903 32 36 12.9 22.5 0.00 0.00 0.00 13 1014.0
20260903161824 32 37 12.9 22.5 0.00 0.00 0.00 13 1014.1
20260903161703 32 37 12.9 22.5 0.00 0.00 0.00 13 1014.0
20260903161603 32 37 11.3 22.5 0.00 0.00 0.00 12 1014.0
20260903161503 32 35 11.3 22.5 0.00 0.00 0.00 10 1014.1
20260903161403 32 37 11.3 22.5 0.00 0.00 0.00 10 1014.0
20260903161324 32 38 11.3 22.5 0.00 0.00 0.00 10 1014.0
20260903161203 32 40 12.9 22.5 0.00 0.00 0.00 10 1014.0
20260903161103 32 41 11.3 22.5 0.00 0.00 0.00 10 1013.9
20260903161003 32 42 12.9 22.5 0.00 0.00 0.00 9 1014.0
20260903160903 32 45 12.9 22.5 0.00 0.00 0.00 8 1014.0
20260903160803 32 45 11.3 22.5 0.00 0.00 0.00 8 1013.9
20260903160703 32 47 12.9 22.5 0.00 0.00 0.00 8 1013.9
20260903160603 31 47 12.9 22.5 0.00 0.00 0.00 8 1013.9
20260903160524 31 48 12.9 22.5 0.00 0.00 0.00 6 1013.9
20260903160403 31 49 12.9 20.9 0.00 0.00 0.00 7 1013.9
20260903160303 31 47 11.3 29.0 0.00 0.00 0.00 7 1013.9
20260903160203 31 49 11.3 29.0 0.00 0.00 0.00 7 1014.0
20260903160003 31 47 12.9 29.0 0.00 0.00 0.00 8 1013.9
20260903155903 31 45 12.9 29.0 0.00 0.00 0.00 7 1013.9
20260903155803 31 42 14.5 33.8 0.00 0.00 0.00 6 1014.0
20260903155703 31 39 14.5 33.8 0.00 0.00 0.00 5 1014.0
20260903155603 31 39 14.5 33.8 0.00 0.00 0.00 4 1013.9
20260903155503 31 37 14.5 33.8 0.00 0.00 0.00 5 1013.9
20260903155403 31 35 14.5 33.8 0.00 0.00 0.00 5 1013.9
20260903155306 31 35 14.5 33.8 0.00 0.00 0.00 5 1013.9
20260903155203 31 33 14.5 33.8 0.00 0.00 0.00 5 1013.9
20260903155103 31 33 14.5 33.8 0.00 0.00 0.00 6 1013.9
20260903155024 31 31 14.5 33.8 0.00 0.00 0.00 5 1013.9
20260903154903 31 30 14.5 33.8 0.00 0.00 0.00 4 1013.8
20260903154824 31 33 12.9 30.6 0.00 0.00 0.00 2 1013.8
20260903154724 31 34 12.9 29.0 0.00 0.00 0.00 1 1013.8
20260903154603 31 33 12.9 29.0 0.00 0.00 0.00 1 1013.8
20260903154503 31 35 12.9 29.0 0.00 0.00 0.00 1 1013.9
20260903154403 31 37 12.9 29.0 0.00 0.00 0.00 1 1013.9
20260903154303 31 38 12.9 25.7 0.00 0.00 0.00 1 1013.9
20260903154224 31 38 12.9 25.7 0.00 0.00 0.00 1 1013.8
20260903154103 31 38 12.9 25.7 0.00 0.00 0.00 1 1013.8
20260903154003 31 37 12.9 24.1 0.00 0.00 0.00 1 1013.8
20260903153924 31 37 12.9 24.1 0.00 0.00 0.00 1 1013.8
20260903153803 31 37 12.9 24.1 0.00 0.00 0.00 1 1013.9
20260903153703 31 38 12.9 25.7 0.00 0.00 0.00 1 1013.8
20260903153603 31 39 12.9 25.7 0.00 0.00 0.00 1 1013.9
20260903153503 31 38 12.9 25.7 0.00 0.00 0.00 1 1013.9
20260903153403 30 38 14.5 25.7 0.00 0.00 0.00 1 1013.9
20260903153303 30 39 14.5 25.7 0.00 0.00 0.00 1 1013.9
20260903153224 30 39 14.5 25.7 0.00 0.00 0.00 1 1014.0
20260903153103 30 40 14.5 30.6 0.00 0.00 0.00 1 1014.0
20260903153003 30 42 14.5 30.6 0.00 0.00 0.00 1 1014.0
20260903152903 30 41 16.1 30.6 0.00 0.00 0.00 1 1014.0
20260903152803 30 41 14.5 30.6 0.00 0.00 0.00 1 1014.0
20260903152703 30 40 14.5 30.6 0.00 0.00 0.00 1 1014.0
20260903152603 30 40 14.5 30.6 0.00 0.00 0.00 1 1014.0
20260903152503 30 39 12.9 30.6 0.00 0.00 0.00 1 1014.0
20260903152403 30 36 12.9 30.6 0.00 0.00 0.00 1 1013.9
20260903152306 30 37 12.9 30.6 0.00 0.00 0.00 1 1014.0
20260903152203 30 39 12.9 30.6 0.00 0.00 0.00 1 1014.0
20260903152103 30 37 12.9 27.4 0.00 0.00 0.00 1 1014.0
20260903152003 30 37 12.9 27.4 0.00 0.00 0.00 1 1014.0
20260903151903 30 36 12.9 27.4 0.00 0.00 0.00 1 1014.0
20260903151803 30 35 12.9 27.4 0.00 0.00 0.00 1 1013.9
20260903151703 30 35 12.9 27.4 0.00 0.00 0.00 1 1013.9
20260903151603 30 35 12.9 27.4 0.00 0.00 0.00 1 1014.0
20260903151503 30 37 14.5 27.4 0.00 0.00 0.00 1 1014.0
20260903151403 30 37 14.5 27.4 0.00 0.00 0.00 1 1014.0
20260903151303 30 36 14.5 27.4 0.00 0.00 0.00 1 1013.9
20260903151203 30 35 14.5 24.1 0.00 0.00 0.00 1 1014.0
20260903151103 30 37 14.5 29.0 0.00 0.00 0.00 1 1014.0
20260903151003 30 36 14.5 29.0 0.00 0.00 0.00 1 1014.0
20260903150903 30 38 16.1 29.0 0.00 0.00 0.00 1 1014.0
20260903150803 30 40 16.1 29.0 0.00 0.00 0.00 1 1014.0
20260903150703 30 40 16.1 29.0 0.00 0.00 0.00 1 1014.0
20260903150603 30 40 14.5 29.0 0.00 0.00 0.00 1 1014.0
20260903150503 30 40 16.1 29.0 0.00 0.00 0.00 1 1014.1
20260903150403 30 43 14.5 29.0 0.00 0.00 0.00 1 1014.0
20260903150303 30 42 16.1 29.0 0.00 0.00 0.00 1 1014.0
20260903150203 30 42 14.5 29.0 0.00 0.00 0.00 1 1014.0
20260903150024 30 45 14.5 27.4 0.00 0.00 0.00 1 1014.0
20260903145903 30 45 14.5 25.7 0.00 0.00 0.00 1 1014.0
20260903145803 30 45 14.5 25.7 0.00 0.00 0.00 1 1014.0
20260903145703 30 47 14.5 25.7 0.00 0.00 0.00 1 1014.0
20260903145603 30 49 14.5 25.7 0.00 0.00 0.00 1 1014.1
20260903145503 30 49 14.5 25.7 0.00 0.00 0.00 1 1014.0
20260903145424 30 50 16.1 25.7 0.00 0.00 0.00 1 1014.0
20260903145305 30 52 16.1 25.7 0.00 0.00 0.00 1 1014.1
20260903145203 30 50 16.1 27.4 0.00 0.00 0.00 1 1014.0
20260903145103 30 49 16.1 27.4 0.00 0.00 0.00 1 1014.0
20260903145003 30 48 16.1 30.6 0.00 0.00 0.00 1 1014.1
20260903144903 30 48 16.1 30.6 0.00 0.00 0.00 1 1014.1
20260903144805 30 46 16.1 30.6 0.00 0.00 0.00 1 1014.0
20260903144703 30 44 16.1 30.6 0.00 0.00 0.00 1 1014.0
20260903144624 30 43 17.7 30.6 0.00 0.00 0.00 1 1014.0
20260903144503 30 42 16.1 30.6 0.00 0.00 0.00 1 1014.0
20260903144424 30 41 16.1 30.6 0.00 0.00 0.00 1 1014.0
20260903144303 30 41 16.1 30.6 0.00 0.00 0.00 1 1014.0
20260903144203 30 42 16.1 30.6 0.00 0.00 0.00 1 1014.0
20260903144103 30 42 16.1 30.6 0.00 0.00 0.00 1 1014.0
20260903144003 30 43 14.5 29.0 0.00 0.00 0.00 1 1014.0
20260903143903 30 44 16.1 29.0 0.00 0.00 0.00 1 1014.0
20260903143803 30 44 14.5 29.0 0.00 0.00 0.00 1 1014.0
20260903143703 30 44 14.5 29.0 0.00 0.00 0.00 1 1014.0
20260903143603 30 45 14.5 29.0 0.00 0.00 0.00 1 1014.0
20260903143503 30 43 16.1 33.8 0.00 0.00 0.00 1 1013.9
20260903143403 30 40 16.1 33.8 0.00 0.00 0.00 1 1013.9
20260903143303 30 41 16.1 33.8 0.00 0.00 0.00 1 1013.9
20260903143203 29 40 16.1 33.8 0.00 0.00 0.00 1 1013.9
20260903143103 29 40 16.1 33.8 0.00 0.00 0.00 1 1013.9
20260903143003 29 40 14.5 33.8 0.00 0.00 0.00 1 1013.8
20260903142903 29 40 14.5 33.8 0.00 0.00 0.00 1 1013.8
20260903142803 29 41 14.5 33.8 0.00 0.00 0.00 1 1013.9
20260903142703 29 41 12.9 33.8 0.00 0.00 0.00 1 1013.9
20260903142603 29 41 12.9 33.8 0.00 0.00 0.00 1 1013.9
20260903142503 29 43 12.9 29.0 0.00 0.00 0.00 1 1013.8
20260903142403 29 46 12.9 24.1 0.00 0.00 0.00 1 1013.9
20260903142306 29 43 12.9 27.4 0.00 0.00 0.00 1 1013.9
20260903142203 29 44 12.9 27.4 0.00 0.00 0.00 1 1013.9
20260903142103 29 44 12.9 27.4 0.00 0.00 0.00 1 1013.8
20260903142003 29 44 12.9 27.4 0.00 0.00 0.00 1 1013.8
20260903141903 29 44 12.9 27.4 0.00 0.00 0.00 1 1013.8
20260903141803 28 42 14.5 27.4 0.00 0.00 0.00 1 1013.8
20260903141703 28 44 14.5 27.4 0.00 0.00 0.00 1 1013.8
20260903141603 28 45 12.9 27.4 0.00 0.00 0.00 1 1013.8
20260903141503 28 45 14.5 27.4 0.00 0.00 0.00 1 1013.8
20260903141403 28 46 12.9 27.4 0.00 0.00 0.00 1 1013.8
20260903141303 28 47 12.9 27.4 0.00 0.00 0.00 1 1013.8
20260903141203 28 46 12.9 24.1 0.00 0.00 0.00 1 1013.8
20260903141124 28 46 12.9 24.1 0.00 0.00 0.00 1 1013.8
20260903141024 28 45 12.9 24.1 0.00 0.00 0.00 1 1013.8
20260903140903 28 45 12.9 24.1 0.00 0.00 0.00 1 1013.8
20260903140803 28 47 12.9 24.1 0.00 0.00 0.00 1 1013.9
20260903140703 28 46 14.5 24.1 0.00 0.00 0.00 1 1013.8
20260903140603 28 45 14.5 25.7 0.00 0.00 0.00 1 1013.8
20260903140503 28 44 16.1 29.0 0.00 0.00 0.00 1 1013.9
20260903140403 28 46 16.1 30.6 0.00 0.00 0.00 1 1013.9
20260903140303 28 47 16.1 30.6 0.00 0.00 0.00 1 1013.9
20260903140203 28 47 16.1 30.6 0.00 0.00 0.00 1 1013.9
20260903140003 28 46 16.1 30.6 0.00 0.00 0.00 1 1013.9
20260903135903 28 46 16.1 30.6 0.00 0.00 0.00 1 1013.8
20260903135803 28 45 16.1 30.6 0.00 0.00 0.00 1 1013.9
20260903135703 28 45 16.1 30.6 0.00 0.00 0.00 1 1013.8
20260903135603 28 46 17.7 30.6 0.00 0.00 0.00 1 1013.8
20260903135524 28 46 16.1 30.6 0.00 0.00 0.00 1 1013.8
20260903135424 28 45 16.1 30.6 0.00 0.00 0.00 1 1013.8
20260903135306 28 43 16.1 30.6 0.00 0.00 0.00 1 1013.9
20260903135203 28 44 16.1 30.6 0.00 0.00 0.00 1 1013.9
20260903135103 28 44 17.7 30.6 0.00 0.00 0.00 1 1013.9
20260903135003 28 44 16.1 30.6 0.00 0.00 0.00 1 1013.9
20260903134903 28 44 17.7 30.6 0.00 0.00 0.00 1 1013.9
20260903134724 28 43 17.7 30.6 0.00 0.00 0.00 1 1014.0
20260903134624 28 42 16.1 30.6 0.00 0.00 0.00 1 1013.9
20260903134503 28 43 16.1 29.0 0.00 0.00 0.00 1 1013.8
20260903134403 28 42 16.1 29.0 0.00 0.00 0.00 1 1013.9
20260903134303 28 39 16.1 29.0 0.00 0.00 0.00 1 1013.9
20260903134203 28 39 16.1 29.0 0.00 0.00 0.00 1 1013.9
20260903134124 28 39 16.1 29.0 0.00 0.00 0.00 1 1013.8
20260903134003 28 40 14.5 29.0 0.00 0.00 0.00 1 1013.8
20260903133903 28 39 14.5 29.0 0.00 0.00 0.00 1 1013.8
20260903133824 28 39 14.5 25.7 0.00 0.00 0.00 1 1013.8
20260903133726 28 38 12.9 25.7 0.00 0.00 0.00 1 1013.9
20260903133603 28 38 12.9 25.7 0.00 0.00 0.00 1 1013.9
20260903133503 28 38 11.3 25.7 0.00 0.00 0.00 1 1013.9
20260903133403 28 41 11.3 25.7 0.00 0.00 0.00 1 1013.9
20260903133303 27 44 11.3 25.7 0.00 0.00 0.00 1 1013.8
20260903133203 27 45 9.7 24.1 0.00 0.00 0.00 1 1013.9
20260903133103 27 44 9.7 24.1 0.00 0.00 0.00 1 1013.9
20260903133003 27 44 9.7 24.1 0.00 0.00 0.00 1 1013.9
20260903132903 27 45 9.7 24.1 0.00 0.00 0.00 1 1013.9
20260903132803 27 45 8.0 20.9 0.00 0.00 0.00 1 1013.9
20260903132703 27 46 9.7 20.9 0.00 0.00 0.00 1 1013.9
20260903132603 27 47 9.7 20.9 0.00 0.00 0.00 1 1013.9
20260903132503 27 48 9.7 20.9 0.00 0.00 0.00 1 1014.0
20260903132403 27 46 9.7 22.5 0.00 0.00 0.00 1 1014.0
20260903132324 27 46 9.7 22.5 0.00 0.00 0.00 1 1014.0
20260903132203 27 45 9.7 22.5 0.00 0.00 0.00 1 1013.9
20260903132124 27 46 9.7 22.5 0.00 0.00 0.00 1 1013.9
20260903132003 27 45 9.7 22.5 0.00 0.00 0.00 1 1014.0
20260903131903 27 44 11.3 22.5 0.00 0.00 0.00 1 1014.0
20260903131803 27 43 11.3 22.5 0.00 0.00 0.00 1 1013.9
20260903131703 27 43 11.3 22.5 0.00 0.00 0.00 1 1014.0
20260903131603 27 41 11.3 22.5 0.00 0.00 0.00 1 1014.0
20260903131503 27 40 11.3 22.5 0.00 0.00 0.00 1 1014.0
20260903131403 27 38 11.3 22.5 0.00 0.00 0.00 1 1014.0
20260903131303 27 38 9.7 22.5 0.00 0.00 0.00 1 1014.0
20260903131203 27 37 11.3 22.5 0.00 0.00 0.00 1 1014.0
20260903131103 27 39 11.3 22.5 0.00 0.00 0.00 1 1014.0
20260903131003 27 39 11.3 24.1 0.00 0.00 0.00 1 1014.0
20260903130903 27 38 11.3 24.1 0.00 0.00 0.00 1 1014.0
20260903130803 27 40 11.3 24.1 0.00 0.00 0.00 1 1014.0
20260903130724 27 39 11.3 24.1 0.00 0.00 0.00 1 1014.0
20260903130603 27 39 11.3 24.1 0.00 0.00 0.00 1 1014.0
20260903130503 27 38 11.3 24.1 0.00 0.00 0.00 1 1014.0
20260903130403 27 39 11.3 24.1 0.00 0.00 0.00 1 1014.0
20260903130303 27 39 11.3 24.1 0.00 0.00 0.00 1 1013.9
20260903130203 27 40 11.3 24.1 0.00 0.00 0.00 1 1014.0
20260903130003 27 39 11.3 22.5 0.00 0.00 0.00 1 1014.0
20260903125903 27 38 11.3 22.5 0.00 0.00 0.00 1 1014.0
20260903125824 27 39 11.3 22.5 0.00 0.00 0.00 1 1013.9
20260903125724 27 39 11.3 20.9 0.00 0.00 0.00 1 1014.0
20260903125603 27 40 11.3 20.9 0.00 0.00 0.00 1 1014.0
20260903125503 27 42 11.3 20.9 0.00 0.00 0.00 1 1013.9
20260903125403 27 42 11.3 20.9 0.00 0.00 0.00 1 1013.9
20260903125324 27 42 11.3 20.9 0.00 0.00 0.00 1 1013.9
20260903125203 27 40 11.3 20.9 0.00 0.00 0.00 1 1013.9
20260903125103 27 40 11.3 20.9 0.00 0.00 0.00 1 1013.9
20260903125003 27 39 11.3 20.9 0.00 0.00 0.00 1 1013.9
20260903124903 27 40 11.3 20.9 0.00 0.00 0.00 1 1013.8
20260903124803 27 41 9.7 20.9 0.00 0.00 0.00 1 1013.8
20260903124703 27 43 11.3 20.9 0.00 0.00 0.00 1 1013.8
20260903124624 27 42 11.3 20.9 0.00 0.00 0.00 1 1013.8
20260903124503 27 41 9.7 20.9 0.00 0.00 0.00 1 1013.8
20260903124403 27 42 9.7 20.9 0.00 0.00 0.00 1 1013.8
20260903124303 27 44 11.3 20.9 0.00 0.00 0.00 1 1013.8
20260903124203 27 43 11.3 20.9 0.00 0.00 0.00 1 1013.8
20260903124124 27 44 11.3 20.9 0.00 0.00 0.00 1 1013.8
20260903124003 27 45 11.3 20.9 0.00 0.00 0.00 1 1013.8
20260903123903 27 43 11.3 20.9 0.00 0.00 0.00 1 1013.8
20260903123803 27 42 11.3 20.9 0.00 0.00 0.00 1 1013.8
20260903123703 27 41 11.3 20.9 0.00 0.00 0.00 1 1013.8
20260903123624 27 42 11.3 20.9 0.00 0.00 0.00 1 1013.8
20260903123503 27 42 11.3 20.9 0.00 0.00 0.00 1 1013.8
20260903123403 27 42 11.3 20.9 0.00 0.00 0.00 1 1013.7
20260903123324 27 41 11.3 22.5 0.00 0.00 0.00 1 1013.7
20260903123203 27 40 11.3 22.5 0.00 0.00 0.00 1 1013.7
20260903123124 27 41 11.3 22.5 0.00 0.00 0.00 1 1013.7
20260903123003 27 40 11.3 22.5 0.00 0.00 0.00 1 1013.7
20260903122903 27 41 11.3 22.5 0.00 0.00 0.00 1 1013.7
20260903122824 27 41 11.3 22.5 0.00 0.00 0.00 1 1013.8
20260903122703 27 40 11.3 22.5 0.00 0.00 0.00 1 1013.6
20260903122603 27 40 11.3 22.5 0.00 0.00 0.00 1 1013.7
20260903122524 27 39 11.3 22.5 0.00 0.00 0.00 1 1013.6
20260903122403 27 39 11.3 22.5 0.00 0.00 0.00 1 1013.7
20260903122305 27 40 11.3 20.9 0.00 0.00 0.00 1 1013.6
20260903122203 27 40 11.3 20.9 0.00 0.00 0.00 1 1013.6
20260903122103 27 40 11.3 20.9 0.00 0.00 0.00 1 1013.6
20260903122003 27 42 11.3 20.9 0.00 0.00 0.00 1 1013.6
20260903121903 27 44 11.3 20.9 0.00 0.00 0.00 1 1013.6
20260903121803 27 44 11.3 22.5 0.00 0.00 0.00 1 1013.6
20260903121703 27 44 11.3 22.5 0.00 0.00 0.00 1 1013.6
20260903121624 27 43 11.3 22.5 0.00 0.00 0.00 1 1013.6
20260903121524 27 44 9.7 22.5 0.00 0.00 0.00 1 1013.6
20260903121403 27 44 9.7 22.5 0.00 0.00 0.00 1 1013.7
20260903121324 26 45 9.7 22.5 0.00 0.00 0.00 1 1013.6
20260903121203 26 44 9.7 22.5 0.00 0.00 0.00 1 1013.6
20260903121103 26 43 9.7 22.5 0.00 0.00 0.00 1 1013.6
20260903121003 26 42 8.0 22.5 0.00 0.00 0.00 1 1013.6
20260903120903 26 41 8.0 22.5 0.00 0.00 0.00 1 1013.6
20260903120803 26 40 8.0 17.7 0.00 0.00 0.00 1 1013.6
20260903120703 26 40 8.0 17.7 0.00 0.00 0.00 1 1013.6
20260903120603 26 39 8.0 16.1 0.00 0.00 0.00 1 1013.6
20260903120503 26 37 9.7 19.3 0.00 0.00 0.00 1 1013.7
20260903120403 26 39 9.7 19.3 0.00 0.00 0.00 1 1013.7
20260903120303 26 39 8.0 19.3 0.00 0.00 0.00 1 1013.6
20260903120224 26 38 8.0 19.3 0.00 0.00 0.00 1 1013.6
20260903120003 26 39 9.7 19.3 0.00 0.00 0.00 1 1013.6
20260903115903 26 39 9.7 19.3 0.00 0.00 0.00 1 1013.5
20260903115803 26 40 9.7 19.3 0.00 0.00 0.00 1 1013.5
20260903115703 26 40 9.7 19.3 0.00 0.00 0.00 1 1013.5
20260903115603 26 42 8.0 19.3 0.00 0.00 0.00 1 1013.5
20260903115524 26 43 8.0 19.3 0.00 0.00 0.00 1 1013.5
20260903115403 26 43 8.0 16.1 0.00 0.00 0.00 1 1013.5
20260903115324 26 44 8.0 16.1 0.00 0.00 0.00 1 1013.5
20260903115203 26 44 8.0 16.1 0.00 0.00 0.00 1 1013.6
20260903115103 26 46 6.4 16.1 0.00 0.00 0.00 1 1013.5
20260903115003 26 47 6.4 16.1 0.00 0.00 0.00 1 1013.5
20260903114903 26 48 6.4 12.9 0.00 0.00 0.00 1 1013.5
20260903114803 26 50 6.4 12.9 0.00 0.00 0.00 1 1013.5
20260903114703 26 51 6.4 12.9 0.00 0.00 0.00 1 1013.6
20260903114603 26 52 6.4 12.9 0.00 0.00 0.00 1 1013.5
20260903114503 26 53 6.4 12.9 0.00 0.00 0.00 1 1013.5
20260903114403 26 52 6.4 12.9 0.00 0.00 0.00 1 1013.5
20260903114303 26 50 6.4 12.9 0.00 0.00 0.00 1 1013.5
20260903114203 26 50 4.8 11.3 0.00 0.00 0.00 1 1013.5
20260903114104 26 47 6.4 12.9 0.00 0.00 0.00 1 1013.5
20260903114004 26 46 6.4 12.9 0.00 0.00 0.00 1 1013.5
20260903113904 26 42 6.4 16.1 0.00 0.00 0.00 1 1013.5
20260903113804 26 40 6.4 19.3 0.00 0.00 0.00 1 1013.5
20260903113704 26 39 8.0 19.3 0.00 0.00 0.00 1 1013.5
20260903113625 26 36 8.0 19.3 0.00 0.00 0.00 1 1013.5
20260903113504 26 31 8.0 19.3 0.00 0.00 0.00 1 1013.5
20260903113405 27 30 8.0 19.3 0.00 0.00 0.00 1 1013.5
20260903113325 27 30 8.0 19.3 0.00 0.00 0.00 1 1013.5
20260903113225 27 30 8.0 19.3 0.00 0.00 0.00 1 1013.4
20260903113104 27 29 8.0 19.3 0.00 0.00 0.00 1 1013.5
20260903113025 27 30 8.0 19.3 0.00 0.00 0.00 1 1013.5
20260903112925 27 32 8.0 19.3 0.00 0.00 0.00 1 1013.5
20260903112804 27 32 9.7 20.9 0.00 0.00 0.00 1 1013.5
20260903112704 27 34 8.0 20.9 0.00 0.00 0.00 1 1013.5
20260903112604 27 35 8.0 20.9 0.00 0.00 0.00 1 1013.5
20260903112505 27 38 8.0 20.9 0.00 0.00 0.00 1 1013.5
20260903112425 27 40 8.0 20.9 0.00 0.00 0.00 1 1013.5
20260903112305 27 40 8.0 20.9 0.00 0.00 0.00 1 1013.5
20260903112205 27 41 8.0 20.9 0.00 0.00 0.00 1 1013.5
20260903112104 27 43 8.0 20.9 0.00 0.00 0.00 1 1013.5
20260903112025 27 41 8.0 20.9 0.00 0.00 0.00 1 1013.5
20260903111904 27 40 8.0 20.9 0.00 0.00 0.00 1 1013.5
20260903111804 27 38 8.0 17.7 0.00 0.00 0.00 1 1013.5
20260903111725 27 36 8.0 17.7 0.00 0.00 0.00 1 1013.4
20260903111604 27 36 8.0 17.7 0.00 0.00 0.00 1 1013.4
20260903111504 27 35 8.0 17.7 0.00 0.00 0.00 1 1013.4
20260903111404 27 35 9.7 22.5 0.00 0.00 0.00 1 1013.4
20260903111306 27 35 9.7 22.5 0.00 0.00 0.00 1 1013.4
20260903111204 27 35 9.7 22.5 0.00 0.00 0.00 1 1013.4
20260903111104 27 35 9.7 22.5 0.00 0.00 0.00 1 1013.4
20260903111004 27 36 9.7 22.5 0.00 0.00 0.00 1 1013.5
20260903110904 27 38 9.7 22.5 0.00 0.00 0.00 1 1013.4
20260903110827 27 38 9.7 22.5 0.00 0.00 0.00 1 1013.4
20260903110704 27 38 9.7 22.5 0.00 0.00 0.00 1 1013.4
20260903110604 27 39 9.7 22.5 0.00 0.00 0.00 1 1013.4
20260903110504 27 40 9.7 22.5 0.00 0.00 0.00 1 1013.4
20260903110404 27 42 9.7 22.5 0.00 0.00 0.00 1 1013.4
20260903110325 27 41 9.7 22.5 0.00 0.00 0.00 1 1013.3
20260903110204 27 40 9.7 22.5 0.00 0.00 0.00 1 1013.4
20260903110104 27 41 9.7 22.5 0.00 0.00 0.00 1 1013.4
20260903110004 27 40 9.7 22.5 0.00 0.00 0.00 1 1013.4
20260903105904 27 38 9.7 22.5 0.00 0.00 0.00 1 1013.4
20260903105804 27 38 9.7 22.5 0.00 0.00 0.00 1 1013.4
20260903105705 27 38 9.7 22.5 0.00 0.00 0.00 1 1013.4
20260903105604 27 37 9.7 20.9 0.00 0.00 0.00 1 1013.4
20260903105504 27 35 9.7 20.9 0.00 0.00 0.00 1 1013.4
20260903105404 27 33 9.7 20.9 0.00 0.00 0.00 1 1013.3
20260903105325 27 35 9.7 20.9 0.00 0.00 0.00 1 1013.4
20260903105204 27 38 8.0 17.7 0.00 0.00 0.00 1 1013.3
20260903105104 27 38 8.0 17.7 0.00 0.00 0.00 1 1013.3
20260903105025 27 40 8.0 17.7 0.00 0.00 0.00 1 1013.3
20260903104904 27 41 8.0 17.7 0.00 0.00 0.00 1 1013.3
20260903104825 27 42 8.0 17.7 0.00 0.00 0.00 1 1013.3
20260903104704 27 40 8.0 19.3 0.00 0.00 0.00 1 1013.3
20260903104604 27 41 8.0 19.3 0.00 0.00 0.00 1 1013.3
20260903104504 27 42 8.0 19.3 0.00 0.00 0.00 1 1013.3
20260903104404 27 42 8.0 19.3 0.00 0.00 0.00 1 1013.2
20260903104304 27 41 8.0 19.3 0.00 0.00 0.00 1 1013.3
20260903104204 27 38 8.0 19.3 0.00 0.00 0.00 1 1013.3
20260903104104 27 36 8.0 19.3 0.00 0.00 0.00 1 1013.2
20260903104025 27 35 8.0 19.3 0.00 0.00 0.00 1 1013.2
20260903103904 26 35 8.0 19.3 0.00 0.00 0.00 1 1013.2
20260903103804 26 37 6.4 19.3 0.00 0.00 0.00 1 1013.2
20260903103704 26 37 6.4 17.7 0.00 0.00 0.00 1 1013.2
20260903103604 26 37 6.4 17.7 0.00 0.00 0.00 1 1013.2
20260903103504 26 38 6.4 14.5 0.00 0.00 0.00 1 1013.1
20260903103425 26 38 6.4 14.5 0.00 0.00 0.00 1 1013.2
20260903103325 26 38 8.0 22.5 0.00 0.00 0.00 1 1013.2
20260903103204 26 42 8.0 22.5 0.00 0.00 0.00 1 1013.1
20260903103104 26 42 8.0 22.5 0.00 0.00 0.00 1 1013.2
20260903103004 26 43 8.0 22.5 0.00 0.00 0.00 1 1013.1
20260903102904 26 44 8.0 22.5 0.00 0.00 0.00 1 1013.1
20260903102804 26 44 8.0 22.5 0.00 0.00 0.00 1 1013.1
20260903102704 26 46 8.0 22.5 0.00 0.00 0.00 1 1013.1
20260903102625 26 46 8.0 22.5 0.00 0.00 0.00 1 1013.1
20260903102504 26 46 8.0 22.5 0.00 0.00 0.00 1 1013.1
20260903102404 26 46 8.0 22.5 0.00 0.00 0.00 1 1013.1
20260903102306 26 45 8.0 19.3 0.00 0.00 0.00 1 1013.1
20260903102204 26 42 9.7 19.3 0.00 0.00 0.00 1 1013.1
20260903102104 26 41 9.7 22.5 0.00 0.00 0.00 1 1013.1
20260903102004 26 40 9.7 22.5 0.00 0.00 0.00 1 1013.1
20260903101906 26 36 9.7 22.5 0.00 0.00 0.00 1 1013.2
20260903101804 26 34 9.7 22.5 0.00 0.00 0.00 1 1013.1
20260903101704 26 33 9.7 22.5 0.00 0.00 0.00 1 1013.1
20260903101604 26 34 9.7 22.5 0.00 0.00 0.00 1 1013.1
20260903101504 26 34 9.7 22.5 0.00 0.00 0.00 1 1013.1
20260903101404 26 33 9.7 22.5 0.00 0.00 0.00 1 1013.1
20260903101304 26 33 8.0 22.5 0.00 0.00 0.00 1 1013.2
20260903101204 26 35 8.0 22.5 0.00 0.00 0.00 1 1013.2
20260903101105 26 37 8.0 17.7 0.00 0.00 0.00 1 1013.1
20260903101004 26 39 8.0 17.7 0.00 0.00 0.00 1 1013.1
20260903100904 26 44 8.0 17.7 0.00 0.00 0.00 1 1013.1
20260903100804 26 44 8.0 17.7 0.00 0.00 0.00 1 1013.1
20260903100704 26 44 8.0 17.7 0.00 0.00 0.00 1 1013.1
20260903100625 26 43 8.0 17.7 0.00 0.00 0.00 1 1013.1
20260903100504 26 43 8.0 17.7 0.00 0.00 0.00 1 1013.1
20260903100404 26 45 6.4 14.5 0.00 0.00 0.00 1 1013.1
20260903100304 26 47 6.4 14.5 0.00 0.00 0.00 1 1013.1
20260903100204 26 47 8.0 14.5 0.00 0.00 0.00 1 1013.1
20260903100104 26 47 8.0 14.5 0.00 0.00 0.00 1 1013.1
20260903100004 26 47 8.0 14.5 0.00 0.00 0.00 1 1013.1
20260903095925 26 45 8.0 14.5 0.00 0.00 0.00 1 1013.1
20260903095804 26 46 6.4 14.5 0.00 0.00 0.00 1 1013.1
20260903095727 26 47 6.4 14.5 0.00 0.00 0.00 1 1013.1
20260903095604 26 48 6.4 14.5 0.00 0.00 0.00 1 1013.2
20260903095525 26 49 6.4 14.5 0.00 0.00 0.00 1 1013.2
20260903095404 26 49 8.0 14.5 0.00 0.00 0.00 1 1013.2
20260903095306 26 49 8.0 14.5 0.00 0.00 0.00 1 1013.2
20260903095225 26 49 8.0 14.5 0.00 0.00 0.00 1 1013.2
20260903095104 26 48 8.0 14.5 0.00 0.00 0.00 1 1013.2
20260903095004 26 46 8.0 14.5 0.00 0.00 0.00 1 1013.3
20260903094904 26 45 9.7 20.9 0.00 0.00 0.00 1 1013.2
20260903094804 26 44 9.7 20.9 0.00 0.00 0.00 1 1013.3
20260903094704 26 44 9.7 20.9 0.00 0.00 0.00 1 1013.3
20260903094625 26 44 9.7 20.9 0.00 0.00 0.00 1 1013.3
20260903094525 26 44 9.7 20.9 0.00 0.00 0.00 1 1013.3
20260903094404 26 43 9.7 20.9 0.00 0.00 0.00 1 1013.3
20260903094306 26 42 9.7 20.9 0.00 0.00 0.00 1 1013.3
20260903094204 26 43 9.7 20.9 0.00 0.00 0.00 1 1013.3
20260903094104 26 42 9.7 20.9 0.00 0.00 0.00 1 1013.3
20260903094004 26 41 9.7 20.9 0.00 0.00 0.00 1 1013.3
20260903093904 26 42 9.7 16.1 0.00 0.00 0.00 1 1013.3
20260903093804 26 42 9.7 17.7 0.00 0.00 0.00 1 1013.3
20260903093704 26 42 9.7 17.7 0.00 0.00 0.00 1 1013.3
20260903093604 26 42 9.7 17.7 0.00 0.00 0.00 1 1013.3
20260903093504 26 41 9.7 19.3 0.00 0.00 0.00 1 1013.3
20260903093404 26 41 9.7 19.3 0.00 0.00 0.00 1 1013.4
20260903093304 26 41 9.7 19.3 0.00 0.00 0.00 1 1013.3
20260903093204 26 42 9.7 19.3 0.00 0.00 0.00 1 1013.4
20260903093104 26 44 9.7 19.3 0.00 0.00 0.00 1 1013.4
20260903093004 26 45 9.7 19.3 0.00 0.00 0.00 1 1013.4
20260903092904 26 45 8.0 19.3 0.00 0.00 0.00 1 1013.4
20260903092804 26 46 8.0 19.3 0.00 0.00 0.00 1 1013.4
20260903092725 26 46 8.0 19.3 0.00 0.00 0.00 1 1013.4
20260903092604 26 46 8.0 19.3 0.00 0.00 0.00 1 1013.4
20260903092504 26 47 8.0 17.7 0.00 0.00 0.00 1 1013.4
20260903092404 26 46 8.0 16.1 0.00 0.00 0.00 1 1013.4
20260903092325 26 47 8.0 16.1 0.00 0.00 0.00 1 1013.4
20260903092204 27 47 8.0 16.1 0.00 0.00 0.00 1 1013.4
20260903092104 27 47 8.0 16.1 0.00 0.00 0.00 1 1013.4
20260903092004 27 47 8.0 16.1 0.00 0.00 0.00 1 1013.3
20260903091904 27 47 6.4 16.1 0.00 0.00 0.00 1 1013.4
20260903091825 27 46 8.0 16.1 0.00 0.00 0.00 1 1013.4
20260903091704 27 43 8.0 19.3 0.00 0.00 0.00 1 1013.4
20260903091604 27 42 8.0 19.3 0.00 0.00 0.00 1 1013.4
20260903091504 27 42 8.0 19.3 0.00 0.00 0.00 1 1013.4
20260903091404 27 43 8.0 19.3 0.00 0.00 0.00 1 1013.5
20260903091304 27 42 9.7 19.3 0.00 0.00 0.00 1 1013.4
20260903091204 27 41 9.7 19.3 0.00 0.00 0.00 1 1013.5
20260903091104 27 40 9.7 24.1 0.00 0.00 0.00 1 1013.5
20260903091004 27 40 11.3 24.1 0.00 0.00 0.00 1 1013.5
20260903090904 27 41 11.3 24.1 0.00 0.00 0.00 1 1013.5
20260903090804 27 44 11.3 24.1 0.00 0.00 0.00 1 1013.5
20260903090706 27 45 11.3 24.1 0.00 0.00 0.00 1 1013.5
20260903090604 27 45 11.3 24.1 0.00 0.00 0.00 1 1013.5
20260903090504 27 44 11.3 24.1 0.00 0.00 0.00 1 1013.5
20260903090404 27 43 11.3 24.1 0.00 0.00 0.00 1 1013.5
20260903090304 27 43 11.3 24.1 0.00 0.00 0.00 1 1013.4
20260903090204 27 43 11.3 24.1 0.00 0.00 0.00 1 1013.4
20260903090104 27 45 9.7 22.5 0.00 0.00 0.00 1 1013.4
20260903090004 27 46 9.7 22.5 0.00 0.00 0.00 1 1013.4
20260903085904 27 44 11.3 22.5 0.00 0.00 0.00 1 1013.5
20260903085804 27 43 11.3 22.5 0.00 0.00 0.00 1 1013.4
20260903085704 27 43 9.7 22.5 0.00 0.00 0.00 1 1013.5
20260903085604 27 43 9.7 22.5 0.00 0.00 0.00 1 1013.5
20260903085504 27 45 9.7 22.5 0.00 0.00 0.00 1 1013.4
20260903085404 27 46 9.7 22.5 0.00 0.00 0.00 1 1013.4
20260903085306 27 46 8.0 16.1 0.00 0.00 0.00 1 1013.4
20260903085204 27 46 8.0 16.1 0.00 0.00 0.00 1 1013.4
20260903085104 27 45 9.7 22.5 0.00 0.00 0.00 1 1013.5
20260903085004 27 44 8.0 22.5 0.00 0.00 0.00 1 1013.4
20260903084904 27 46 8.0 22.5 0.00 0.00 0.00 1 1013.5
20260903084825 27 45 8.0 22.5 0.00 0.00 0.00 1 1013.4
20260903084725 27 44 9.7 22.5 0.00 0.00 0.00 1 1013.5
20260903084604 27 40 9.7 22.5 0.00 0.00 0.00 1 1013.5
20260903084504 27 40 9.7 22.5 0.00 0.00 0.00 1 1013.5
20260903084404 27 38 9.7 22.5 0.00 0.00 0.00 1 1013.5
20260903084304 27 36 9.7 22.5 0.00 0.00 0.00 1 1013.5
20260903084227 27 36 9.7 22.5 0.00 0.00 0.00 1 1013.5
20260903084106 27 36 9.7 19.3 0.00 0.00 0.00 1 1013.5
20260903084004 27 38 9.7 19.3 0.00 0.00 0.00 1 1013.5
20260903083925 27 36 9.7 20.9 0.00 0.00 0.00 1 1013.5
20260903083804 27 35 9.7 20.9 0.00 0.00 0.00 1 1013.5
20260903083704 27 35 9.7 20.9 0.00 0.00 0.00 1 1013.4
20260903083604 27 37 9.7 20.9 0.00 0.00 0.00 1 1013.4
20260903083504 27 38 9.7 20.9 0.00 0.00 0.00 1 1013.4
20260903083404 27 39 9.7 20.9 0.00 0.00 0.00 1 1013.4
20260903083304 27 38 9.7 20.9 0.00 0.00 0.00 1 1013.4
20260903083204 27 39 9.7 20.9 0.00 0.00 0.00 1 1013.4
20260903083104 27 38 9.7 20.9 0.00 0.00 0.00 1 1013.4
20260903083025 27 36 9.7 20.9 0.00 0.00 0.00 1 1013.4
20260903082925 27 36 9.7 19.3 0.00 0.00 0.00 1 1013.4
20260903082804 27 36 8.0 19.3 0.00 0.00 0.00 1 1013.4
20260903082704 27 35 8.0 17.7 0.00 0.00 0.00 1 1013.4
20260903082625 27 36 9.7 17.7 0.00 0.00 0.00 1 1013.4
20260903082504 27 36 9.7 17.7 0.00 0.00 0.00 1 1013.4
20260903082425 27 35 9.7 24.1 0.00 0.00 0.00 1 1013.4
20260903082306 27 35 9.7 25.7 0.00 0.00 0.00 1 1013.4
20260903082204 27 34 9.7 25.7 0.00 0.00 0.00 1 1013.4
20260903082125 27 33 9.7 25.7 0.00 0.00 0.00 1 1013.5
20260903082004 27 35 9.7 25.7 0.00 0.00 0.00 1 1013.4
20260903081904 27 34 11.3 25.7 0.00 0.00 0.00 1 1013.4
20260903081804 27 35 11.3 25.7 0.00 0.00 0.00 1 1013.5
20260903081725 27 35 11.3 25.7 0.00 0.00 0.00 1 1013.4
20260903081604 27 35 11.3 25.7 0.00 0.00 0.00 1 1013.5
20260903081504 27 36 11.3 25.7 0.00 0.00 0.00 1 1013.5
20260903081426 27 35 11.3 25.7 0.00 0.00 0.00 1 1013.4
20260903081304 27 37 11.3 24.1 0.00 0.00 0.00 1 1013.5
20260903081227 27 38 11.3 24.1 0.00 0.00 0.00 1 1013.4
20260903081125 27 39 11.3 24.1 0.00 0.00 0.00 1 1013.4
20260903081025 27 37 11.3 24.1 0.00 0.00 0.00 1 1013.4
20260903080904 27 35 11.3 24.1 0.00 0.00 0.00 1 1013.4
20260903080804 27 34 11.3 24.1 0.00 0.00 0.00 1 1013.4
20260903080704 27 34 11.3 24.1 0.00 0.00 0.00 1 1013.4
20260903080604 27 33 11.3 25.7 0.00 0.00 0.00 1 1013.4
20260903080525 27 33 12.9 25.7 0.00 0.00 0.00 1 1013.4
20260903080404 27 32 12.9 25.7 0.00 0.00 0.00 1 1013.4
20260903080304 27 31 12.9 25.7 0.00 0.00 0.00 1 1013.3
20260903080204 27 32 12.9 25.7 0.00 0.00 0.00 1 1013.4
20260903080104 27 32 12.9 25.7 0.00 0.00 0.00 1 1013.3
20260903080025 27 32 12.9 25.7 0.00 0.00 0.00 1 1013.4
20260903075904 27 31 12.9 25.7 0.00 0.00 0.00 1 1013.4
20260903075825 27 31 12.9 25.7 0.00 0.00 0.00 1 1013.3
20260903075704 27 31 12.9 25.7 0.00 0.00 0.00 1 1013.4
20260903075604 27 32 12.9 24.1 0.00 0.00 0.00 1 1013.3